BAW351 EGLL-KSFO

Flight info

Callsign BAW351
Flight time 10h 36m
Altitude 32000
Route ULTIB T420 TNT UL28 RODOL UM65 TENSO L603 BELOX DCT GOMUP/M084F340 DCT 59N020W 61N030W 62N040W 63N050W DCT LIBOR DCT BERUS/N0477F340 DCT YFB DCT 63N080W/N0489F360 61N090W 57N100W DCT POLLE DCT WALSH DCT BOI DCT MRRLO BDEGA4
Aircraft B77W/H-SDE1E2E3FGHIJ2J3J4J5M1RWXY/LB1D1

Departure

Time 2026-05-07 20:28
Airport London Heathrow Airport (EGLL)

Arrival

Time 2026-05-08 07:04
Airport San Francisco International Airport (KSFO)
Time Latitude Longitude Altitude Speed Heading
2026-05-07 20:03 51.47048 -0.48241 64 ft 0 kts 90°
2026-05-07 20:14 51.47048 -0.48249 92 ft 1 kts 90°
2026-05-07 20:14 51.47048 -0.48259 96 ft 1 kts 90°
2026-05-07 20:15 51.47048 -0.48265 96 ft 0 kts 90°
2026-05-07 20:15 51.47048 -0.48264 95 ft 0 kts 90°
2026-05-07 20:15 51.47048 -0.48267 95 ft 2 kts 90°
2026-05-07 20:16 51.47048 -0.48306 93 ft 4 kts 90°
2026-05-07 20:16 51.47048 -0.48345 93 ft 4 kts 97°
2026-05-07 20:16 51.47053 -0.48384 92 ft 4 kts 111°
2026-05-07 20:16 51.47064 -0.48411 93 ft 0 kts 128°
2026-05-07 20:17 51.47064 -0.48410 93 ft 0 kts 128°
2026-05-07 20:17 51.47058 -0.48399 92 ft 1 kts 131°
2026-05-07 20:17 51.47051 -0.48389 91 ft 1 kts 141°
2026-05-07 20:17 51.47036 -0.48376 92 ft 3 kts 156°
2026-05-07 20:18 51.47016 -0.48367 93 ft 3 kts 167°
2026-05-07 20:18 51.46995 -0.48363 92 ft 3 kts 176°
2026-05-07 20:18 51.46991 -0.48363 96 ft 0 kts 176°
2026-05-07 20:22 51.46986 -0.48363 95 ft 5 kts 176°
2026-05-07 20:22 51.46943 -0.48359 92 ft 6 kts 176°
2026-05-07 20:23 51.46904 -0.48355 94 ft 6 kts 177°
2026-05-07 20:23 51.46864 -0.48355 92 ft 6 kts 181°
2026-05-07 20:23 51.46824 -0.48356 91 ft 6 kts 181°
2026-05-07 20:23 51.46784 -0.48360 93 ft 6 kts 189°
2026-05-07 20:24 51.46754 -0.48398 95 ft 6 kts 238°
2026-05-07 20:24 51.46742 -0.48487 92 ft 13 kts 265°
2026-05-07 20:24 51.46739 -0.48629 91 ft 7 kts 270°
2026-05-07 20:24 51.46731 -0.48707 96 ft 7 kts 240°
2026-05-07 20:25 51.46687 -0.48744 95 ft 7 kts 190°
2026-05-07 20:25 51.46637 -0.48756 95 ft 7 kts 191°
2026-05-07 20:25 51.46587 -0.48776 94 ft 7 kts 194°
2026-05-07 20:25 51.46537 -0.48785 93 ft 7 kts 177°
2026-05-07 20:26 51.46495 -0.48740 95 ft 7 kts 126°
2026-05-07 20:26 51.46481 -0.48680 95 ft 3 kts 104°
2026-05-07 20:26 51.46478 -0.48651 94 ft 3 kts 95°
2026-05-07 20:26 51.46477 -0.48621 96 ft 3 kts 92°
2026-05-07 20:27 51.46477 -0.48619 96 ft 0 kts 92°
2026-05-07 20:27 51.46476 -0.48555 96 ft 19 kts 90°
2026-05-07 20:27 51.46478 -0.47960 91 ft 99 kts 90°
2026-05-07 20:27 51.46482 -0.46338 97 ft 190 kts 92°
2026-05-07 20:28 51.46452 -0.43980 859 ft 216 kts 93°
2026-05-07 20:28 51.46385 -0.41622 2223 ft 207 kts 92°
2026-05-07 20:28 51.46743 -0.39375 2538 ft 220 kts 54°
2026-05-07 20:28 51.47825 -0.37573 2656 ft 229 kts 50°
2026-05-07 20:29 51.48858 -0.35519 2921 ft 242 kts 53°
2026-05-07 20:29 51.49909 -0.33360 3406 ft 248 kts 52°
2026-05-07 20:29 51.51001 -0.31179 4055 ft 251 kts 51°
2026-05-07 20:29 51.52106 -0.29007 4823 ft 252 kts 51°
2026-05-07 20:30 51.53048 -0.26622 5258 ft 257 kts 70°
2026-05-07 20:30 51.53622 -0.23873 5530 ft 263 kts 71°
2026-05-07 20:30 51.54220 -0.21072 5884 ft 268 kts 69°
2026-05-07 20:30 51.55219 -0.18598 5960 ft 273 kts 38°
2026-05-07 20:31 51.56967 -0.17417 5996 ft 274 kts
2026-05-07 20:31 51.58795 -0.18049 5978 ft 272 kts 328°
2026-05-07 20:31 51.60202 -0.20022 5983 ft 269 kts 314°
2026-05-07 20:31 51.61604 -0.22050 5984 ft 273 kts 322°
2026-05-07 20:32 51.63109 -0.23872 5971 ft 274 kts 320°
2026-05-07 20:32 51.64593 -0.25828 5978 ft 276 kts 323°
2026-05-07 20:32 51.66162 -0.27572 5969 ft 272 kts 327°
2026-05-07 20:32 51.67746 -0.29221 5967 ft 269 kts 327°
2026-05-07 20:33 51.69314 -0.30863 6098 ft 269 kts 327°
2026-05-07 20:33 51.70900 -0.32476 6855 ft 271 kts 327°
2026-05-07 20:33 51.72515 -0.34082 7575 ft 275 kts 327°
2026-05-07 20:33 51.74161 -0.35693 8305 ft 278 kts 327°
2026-05-07 20:34 51.75831 -0.37309 9032 ft 282 kts 327°
2026-05-07 20:34 51.77526 -0.38941 9765 ft 286 kts 327°
2026-05-07 20:34 51.79271 -0.40620 10188 ft 302 kts 328°
2026-05-07 20:34 51.81138 -0.42422 10388 ft 325 kts 327°
2026-05-07 20:35 51.83111 -0.44344 10692 ft 342 kts 327°
2026-05-07 20:35 51.85175 -0.46360 11260 ft 351 kts 327°
2026-05-07 20:35 51.87285 -0.48424 11927 ft 357 kts 327°
2026-05-07 20:35 51.89428 -0.50521 12692 ft 362 kts 327°
2026-05-07 20:36 51.91596 -0.52644 13452 ft 367 kts 327°
2026-05-07 20:36 51.93797 -0.54802 14153 ft 372 kts 327°
2026-05-07 20:36 51.96027 -0.56985 14858 ft 376 kts 327°
2026-05-07 20:36 51.98272 -0.59174 15621 ft 378 kts 327°
2026-05-07 20:37 52.00536 -0.61381 16378 ft 380 kts 327°
2026-05-07 20:37 52.02813 -0.63605 17093 ft 384 kts 327°
2026-05-07 20:37 52.05116 -0.65858 17804 ft 388 kts 327°
2026-05-07 20:37 52.07440 -0.68135 18494 ft 391 kts 327°
2026-05-07 20:38 52.09785 -0.70435 19130 ft 395 kts 327°
2026-05-07 20:38 52.12141 -0.72749 19762 ft 397 kts 327°
2026-05-07 20:38 52.14514 -0.75088 20391 ft 401 kts 327°
2026-05-07 20:38 52.16910 -0.77461 21010 ft 404 kts 326°
2026-05-07 20:39 52.19323 -0.79855 21620 ft 407 kts 326°
2026-05-07 20:39 52.21748 -0.82264 22227 ft 410 kts 326°
2026-05-07 20:39 52.24220 -0.84722 22478 ft 424 kts 326°
2026-05-07 20:39 52.26771 -0.87259 22719 ft 435 kts 326°
2026-05-07 20:40 52.29388 -0.89854 23109 ft 443 kts 326°
2026-05-07 20:40 52.32036 -0.92479 23637 ft 446 kts 326°
2026-05-07 20:40 52.34694 -0.95117 24146 ft 448 kts 326°
2026-05-07 20:40 52.37323 -0.97731 24664 ft 449 kts 326°
2026-05-07 20:41 52.40004 -1.00402 25139 ft 452 kts 326°
2026-05-07 20:41 52.42693 -1.03087 25558 ft 454 kts 326°
2026-05-07 20:41 52.45400 -1.05792 26001 ft 457 kts 326°
2026-05-07 20:41 52.48122 -1.08518 26440 ft 460 kts 326°
2026-05-07 20:42 52.50855 -1.11268 26856 ft 462 kts 326°
2026-05-07 20:42 52.53595 -1.14050 27273 ft 465 kts 326°
2026-05-07 20:42 52.56355 -1.16857 27684 ft 467 kts 326°
2026-05-07 20:42 52.59125 -1.19666 28081 ft 470 kts 326°
2026-05-07 20:43 52.61914 -1.22490 28435 ft 472 kts 326°
2026-05-07 20:43 52.64718 -1.25330 28794 ft 474 kts 326°
2026-05-07 20:43 52.67542 -1.28197 29151 ft 476 kts 326°
2026-05-07 20:43 52.70362 -1.31064 29609 ft 476 kts 326°
2026-05-07 20:44 52.73140 -1.33890 30153 ft 473 kts 326°
2026-05-07 20:44 52.75973 -1.36772 30624 ft 472 kts 326°
2026-05-07 20:44 52.78763 -1.39615 31008 ft 471 kts 326°
2026-05-07 20:44 52.81519 -1.42429 31361 ft 471 kts 326°
2026-05-07 20:45 52.84300 -1.45272 31727 ft 470 kts 326°
2026-05-07 20:45 52.87081 -1.48122 32007 ft 471 kts 326°
2026-05-07 20:45 52.89880 -1.50995 32037 ft 474 kts 326°
2026-05-07 20:46 52.95467 -1.56739 32036 ft 469 kts 326°
2026-05-07 20:46 53.01004 -1.62450 32054 ft 468 kts 325°
2026-05-07 20:47 53.06535 -1.68172 32030 ft 469 kts 325°
2026-05-07 20:47 53.12065 -1.73925 32033 ft 469 kts 325°
2026-05-07 20:48 53.16670 -1.78733 32040 ft 470 kts 325°
2026-05-07 20:48 53.22218 -1.84538 32038 ft 471 kts 325°
2026-05-07 20:49 53.27829 -1.90199 32047 ft 472 kts 328°
2026-05-07 20:49 53.33583 -1.95539 32043 ft 473 kts 328°
2026-05-07 20:50 53.39334 -2.00919 32040 ft 474 kts 328°
2026-05-07 20:50 53.45068 -2.06378 32040 ft 474 kts 328°
2026-05-07 20:51 53.50794 -2.11861 32042 ft 474 kts 328°
2026-05-07 20:51 53.56464 -2.17371 32031 ft 471 kts 323°
2026-05-07 20:51 53.58958 -2.20888 32030 ft 467 kts 310°
2026-05-07 20:52 53.60938 -2.25177 32045 ft 463 kts 299°
2026-05-07 20:52 53.63499 -2.35029 32037 ft 459 kts 288°
2026-05-07 20:53 53.65725 -2.45162 32027 ft 462 kts 288°
2026-05-07 20:53 53.67999 -2.55330 32024 ft 464 kts 289°
2026-05-07 20:54 53.70302 -2.65515 32022 ft 465 kts 289°
2026-05-07 20:54 53.72602 -2.75704 32015 ft 464 kts 289°
2026-05-07 20:55 53.74888 -2.85883 32018 ft 463 kts 288°
2026-05-07 20:55 53.77160 -2.96059 32014 ft 461 kts 288°
2026-05-07 20:56 53.79401 -3.06144 32016 ft 461 kts 288°
2026-05-07 20:56 53.81644 -3.16291 32012 ft 460 kts 288°
2026-05-07 20:57 53.83878 -3.26446 32014 ft 460 kts 288°
2026-05-07 20:57 53.86107 -3.36621 32014 ft 461 kts 288°
2026-05-07 20:58 53.88610 -3.46631 32010 ft 464 kts 297°
2026-05-07 20:58 53.92286 -3.55657 32013 ft 469 kts 308°
2026-05-07 20:59 53.96708 -3.63819 32014 ft 470 kts 310°
2026-05-07 20:59 54.01182 -3.71932 32011 ft 471 kts 310°
2026-05-07 21:00 54.05638 -3.80112 32007 ft 471 kts 309°
2026-05-07 21:00 54.10070 -3.88339 32007 ft 472 kts 309°
2026-05-07 21:01 54.14466 -3.96550 32002 ft 472 kts 309°
2026-05-07 21:01 54.18891 -4.04846 32013 ft 472 kts 309°
2026-05-07 21:02 54.23314 -4.13164 32002 ft 473 kts 309°
2026-05-07 21:02 54.27731 -4.21498 32005 ft 473 kts 309°
2026-05-07 21:03 54.32149 -4.29860 31996 ft 473 kts 309°
2026-05-07 21:03 54.36562 -4.38242 31992 ft 473 kts 308°
2026-05-07 21:04 54.40973 -4.46651 31985 ft 474 kts 308°
2026-05-07 21:04 54.45377 -4.55074 31987 ft 473 kts 308°
2026-05-07 21:05 54.49742 -4.63453 31985 ft 473 kts 308°
2026-05-07 21:05 54.54129 -4.71903 31980 ft 473 kts 308°
2026-05-07 21:06 54.58511 -4.80374 31977 ft 473 kts 308°
2026-05-07 21:06 54.62881 -4.88850 31973 ft 473 kts 308°
2026-05-07 21:07 54.67255 -4.97364 31978 ft 473 kts 308°
2026-05-07 21:07 54.71618 -5.05887 31967 ft 473 kts 308°
2026-05-07 21:08 54.75976 -5.14429 31965 ft 473 kts 308°
2026-05-07 21:08 54.80327 -5.22988 31964 ft 473 kts 307°
2026-05-07 21:09 54.84672 -5.31566 31960 ft 473 kts 307°
2026-05-07 21:09 54.89008 -5.40158 31958 ft 473 kts 307°
2026-05-07 21:10 54.93345 -5.48780 31947 ft 473 kts 307°
2026-05-07 21:10 54.97671 -5.57412 31950 ft 473 kts 307°
2026-05-07 21:11 55.01989 -5.66060 31952 ft 473 kts 307°
2026-05-07 21:11 55.08435 -5.79024 31949 ft 473 kts 307°
2026-05-07 21:12 55.12744 -5.87730 31954 ft 473 kts 307°
2026-05-07 21:12 55.17048 -5.96458 31953 ft 473 kts 307°
2026-05-07 21:13 55.21335 -6.05183 31952 ft 473 kts 307°
2026-05-07 21:13 55.25615 -6.13924 31945 ft 472 kts 306°
2026-05-07 21:14 55.29886 -6.22679 31949 ft 472 kts 306°
2026-05-07 21:14 55.34147 -6.31445 31941 ft 472 kts 306°
2026-05-07 21:15 55.38399 -6.40224 31941 ft 471 kts 306°
2026-05-07 21:15 55.42645 -6.49024 31944 ft 471 kts 306°
2026-05-07 21:16 55.46886 -6.57844 31946 ft 472 kts 306°
2026-05-07 21:16 55.51093 -6.66626 31938 ft 472 kts 305°
2026-05-07 21:17 55.55326 -6.75494 31938 ft 472 kts 305°
2026-05-07 21:17 55.59562 -6.84402 31939 ft 472 kts 305°
2026-05-07 21:18 55.63783 -6.93311 31922 ft 472 kts 304°
2026-05-07 21:18 55.68000 -7.02243 31927 ft 473 kts 304°
2026-05-07 21:19 55.72211 -7.11198 31920 ft 473 kts 304°
2026-05-07 21:19 55.76423 -7.20186 31920 ft 473 kts 304°
2026-05-07 21:20 55.80627 -7.29190 31916 ft 474 kts 304°
2026-05-07 21:20 55.84804 -7.38170 31914 ft 474 kts 303°
2026-05-07 21:21 55.88996 -7.47216 31907 ft 474 kts 303°
2026-05-07 21:21 55.93187 -7.56296 31907 ft 474 kts 303°
2026-05-07 21:22 55.97366 -7.65382 31908 ft 474 kts 303°
2026-05-07 21:22 56.01539 -7.74490 31904 ft 474 kts 303°
2026-05-07 21:23 56.05707 -7.83619 31898 ft 473 kts 303°
2026-05-07 21:23 56.09863 -7.92759 31896 ft 473 kts 302°
2026-05-07 21:24 56.14014 -8.01921 31894 ft 473 kts 302°
2026-05-07 21:24 56.18156 -8.11098 31888 ft 473 kts 302°
2026-05-07 21:25 56.22287 -8.20286 31885 ft 473 kts 302°
2026-05-07 21:25 56.26409 -8.29491 31884 ft 473 kts 302°
2026-05-07 21:26 56.30531 -8.38729 31875 ft 473 kts 302°
2026-05-07 21:26 56.34641 -8.47975 31875 ft 473 kts 302°
2026-05-07 21:27 56.38747 -8.57247 31877 ft 473 kts 302°
2026-05-07 21:27 56.42845 -8.66538 31862 ft 473 kts 302°
2026-05-07 21:28 56.46905 -8.75779 31872 ft 473 kts 302°
2026-05-07 21:28 56.50985 -8.85101 31867 ft 473 kts 301°
2026-05-07 21:29 56.55065 -8.94458 31864 ft 473 kts 301°
2026-05-07 21:29 56.59134 -9.03826 31863 ft 473 kts 301°
2026-05-07 21:30 56.63200 -9.13225 31852 ft 473 kts 301°
2026-05-07 21:30 56.67255 -9.22633 31847 ft 473 kts 301°
2026-05-07 21:31 56.71304 -9.32065 31847 ft 472 kts 301°
2026-05-07 21:31 56.75340 -9.41503 31839 ft 472 kts 301°
2026-05-07 21:32 56.79338 -9.50890 31821 ft 471 kts 301°
2026-05-07 21:32 56.83347 -9.60339 31824 ft 471 kts 301°
2026-05-07 21:33 56.87346 -9.69803 31825 ft 470 kts 301°
2026-05-07 21:33 56.91334 -9.79278 31820 ft 470 kts 301°
2026-05-07 21:34 56.95313 -9.88766 31816 ft 469 kts 301°
2026-05-07 21:34 56.99228 -9.98321 31815 ft 466 kts 297°
2026-05-07 21:35 57.02275 -10.08640 31804 ft 457 kts 288°
2026-05-07 21:35 57.04450 -10.17461 31800 ft 457 kts 288°
2026-05-07 21:36 57.07066 -10.28108 31797 ft 457 kts 288°
2026-05-07 21:36 57.09696 -10.38755 31796 ft 458 kts 288°
2026-05-07 21:37 57.12334 -10.49423 31787 ft 458 kts 288°
2026-05-07 21:37 57.14967 -10.60104 31788 ft 458 kts 288°
2026-05-07 21:38 57.17594 -10.70821 31787 ft 458 kts 288°
2026-05-07 21:38 57.20207 -10.81532 31784 ft 458 kts 288°
2026-05-07 21:39 57.22799 -10.92211 31785 ft 458 kts 288°
2026-05-07 21:39 57.25411 -11.03025 31784 ft 458 kts 289°
2026-05-07 21:40 57.27995 -11.13779 31775 ft 458 kts 289°
2026-05-07 21:40 57.30554 -11.24478 31774 ft 457 kts 289°
2026-05-07 21:41 57.33116 -11.35245 31786 ft 457 kts 289°
2026-05-07 21:41 57.35667 -11.46021 31774 ft 457 kts 289°
2026-05-07 21:42 57.38206 -11.56800 31772 ft 457 kts 289°
2026-05-07 21:42 57.40740 -11.67610 31776 ft 457 kts 289°
2026-05-07 21:43 57.43264 -11.78433 31776 ft 457 kts 289°
2026-05-07 21:43 57.45777 -11.89265 31775 ft 457 kts 289°
2026-05-07 21:44 57.48282 -12.00113 31778 ft 457 kts 289°
2026-05-07 21:44 57.50778 -12.10979 31783 ft 457 kts 289°
2026-05-07 21:45 57.53260 -12.21844 31780 ft 456 kts 289°
2026-05-07 21:45 57.55735 -12.32728 31775 ft 456 kts 289°
2026-05-07 21:46 57.58183 -12.43550 31790 ft 456 kts 289°
2026-05-07 21:46 57.60636 -12.54457 31792 ft 456 kts 289°
2026-05-07 21:47 57.63082 -12.65378 31796 ft 456 kts 289°
2026-05-07 21:47 57.65518 -12.76322 31802 ft 456 kts 289°
2026-05-07 21:48 57.67948 -12.87283 31806 ft 456 kts 288°
2026-05-07 21:48 57.70363 -12.98233 31811 ft 456 kts 288°
2026-05-07 21:49 57.72766 -13.09201 31819 ft 455 kts 288°
2026-05-07 21:49 57.75154 -13.20153 31819 ft 454 kts 288°
2026-05-07 21:50 57.77527 -13.31094 31832 ft 453 kts 289°
2026-05-07 21:50 57.79885 -13.42018 31829 ft 452 kts 289°
2026-05-07 21:51 57.82228 -13.52934 31839 ft 451 kts 289°
2026-05-07 21:51 57.84524 -13.63681 31827 ft 440 kts 289°
2026-05-07 21:52 57.86806 -13.74435 31863 ft 444 kts 289°
2026-05-07 21:52 57.89060 -13.85112 31858 ft 442 kts 288°
2026-05-07 21:53 57.91330 -13.95909 31856 ft 444 kts 288°
2026-05-07 21:53 57.93586 -14.06696 31881 ft 444 kts 289°
2026-05-07 21:54 57.95837 -14.17520 31867 ft 443 kts 289°
2026-05-07 21:54 57.98071 -14.28326 31882 ft 442 kts 289°
2026-05-07 21:55 58.00305 -14.39182 31886 ft 445 kts 288°
2026-05-07 21:55 58.02510 -14.49945 31882 ft 437 kts 289°
2026-05-07 21:56 58.04710 -14.60770 31901 ft 445 kts 289°
2026-05-07 21:56 58.06906 -14.71616 31896 ft 438 kts 289°
2026-05-07 21:57 58.09086 -14.82452 31937 ft 445 kts 289°
2026-05-07 21:57 58.11264 -14.93328 31912 ft 438 kts 289°
2026-05-07 21:58 58.13415 -15.04131 31937 ft 446 kts 289°
2026-05-07 21:58 58.15592 -15.15117 31928 ft 443 kts 289°
2026-05-07 21:59 58.17739 -15.26016 31949 ft 445 kts 289°
2026-05-07 21:59 58.19891 -15.36997 31931 ft 438 kts 289°
2026-05-07 22:00 58.22014 -15.47893 31960 ft 445 kts 289°
2026-05-07 22:00 58.24153 -15.58945 31952 ft 442 kts 289°
2026-05-07 22:01 58.26258 -15.69876 31968 ft 444 kts 289°
2026-05-07 22:01 58.28364 -15.80862 31957 ft 444 kts 289°
2026-05-07 22:02 58.30455 -15.91844 31979 ft 443 kts 289°
2026-05-07 22:02 58.32553 -16.02930 31968 ft 442 kts 289°
2026-05-07 22:03 58.34620 -16.13915 31989 ft 444 kts 289°
2026-05-07 22:03 58.36701 -16.25035 31979 ft 442 kts 289°
2026-05-07 22:04 58.38740 -16.35986 31995 ft 440 kts 289°
2026-05-07 22:04 58.40798 -16.47108 32000 ft 446 kts 289°
2026-05-07 22:05 58.42833 -16.58166 31996 ft 439 kts 289°
2026-05-07 22:05 58.44862 -16.69266 32015 ft 447 kts 289°
2026-05-07 22:06 58.46881 -16.80368 32007 ft 437 kts 289°
2026-05-07 22:06 58.48876 -16.91406 32025 ft 444 kts 288°
2026-05-07 22:07 58.50891 -17.02627 32015 ft 444 kts 288°
2026-05-07 22:07 58.52853 -17.13614 32024 ft 435 kts 288°
2026-05-07 22:08 58.54823 -17.24705 32050 ft 445 kts 288°
2026-05-07 22:08 58.56801 -17.35913 32039 ft 441 kts 288°
2026-05-07 22:09 58.58752 -17.47041 32060 ft 443 kts 288°
2026-05-07 22:09 58.60693 -17.58167 32062 ft 440 kts 288°
2026-05-07 22:10 58.62633 -17.69363 32063 ft 441 kts 288°
2026-05-07 22:10 58.64555 -17.80518 32074 ft 442 kts 288°
2026-05-07 22:11 58.66473 -17.91727 32073 ft 441 kts 288°
2026-05-07 22:11 58.68370 -18.02878 32078 ft 442 kts 288°
2026-05-07 22:12 58.70271 -18.14124 32058 ft 440 kts 288°
2026-05-07 22:12 58.72160 -18.25364 32071 ft 442 kts 288°
2026-05-07 22:13 58.74048 -18.36670 32064 ft 442 kts 288°
2026-05-07 22:13 58.75904 -18.47856 32093 ft 441 kts 288°
2026-05-07 22:14 58.77765 -18.59146 32094 ft 443 kts 288°
2026-05-07 22:14 58.79612 -18.70416 32102 ft 441 kts 288°
2026-05-07 22:15 58.81452 -18.81721 32097 ft 441 kts 288°
2026-05-07 22:15 58.83280 -18.93031 32097 ft 440 kts 288°
2026-05-07 22:16 58.85096 -19.04329 32106 ft 441 kts 288°
2026-05-07 22:16 58.86908 -19.15681 32110 ft 440 kts 287°
2026-05-07 22:17 58.88698 -19.26970 32121 ft 443 kts 287°
2026-05-07 22:17 58.90499 -19.38395 32108 ft 440 kts 287°
2026-05-07 22:18 58.93152 -19.55376 32121 ft 443 kts 287°
2026-05-07 22:19 58.94916 -19.66761 32121 ft 439 kts 287°
2026-05-07 22:19 58.96674 -19.78177 32137 ft 444 kts 287°
2026-05-07 22:20 58.98421 -19.89593 32133 ft 441 kts 287°
2026-05-07 22:20 59.00281 -20.00993 32135 ft 443 kts 292°
2026-05-07 22:21 59.02894 -20.11766 32155 ft 444 kts 296°
2026-05-07 22:21 59.05623 -20.22518 32132 ft 441 kts 296°
2026-05-07 22:22 59.08318 -20.33261 32159 ft 446 kts 296°
2026-05-07 22:22 59.10552 -20.42255 32141 ft 441 kts 296°
2026-05-07 22:23 59.13662 -20.54864 32153 ft 445 kts 296°
2026-05-07 22:23 59.16316 -20.65687 32155 ft 442 kts 296°
2026-05-07 22:24 59.18546 -20.74823 32172 ft 447 kts 296°
2026-05-07 22:24 59.21208 -20.85774 32157 ft 443 kts 296°
2026-05-07 22:25 59.23827 -20.96600 32176 ft 446 kts 296°
2026-05-07 22:25 59.26462 -21.07546 32172 ft 445 kts 296°
2026-05-07 22:26 59.29085 -21.18502 32176 ft 444 kts 296°
2026-05-07 22:26 59.31705 -21.29498 32175 ft 445 kts 296°
2026-05-07 22:27 59.34309 -21.40480 32189 ft 445 kts 296°
2026-05-07 22:27 59.36909 -21.51509 32192 ft 448 kts 296°
2026-05-07 22:28 59.39491 -21.62516 32187 ft 442 kts 296°
2026-05-07 22:28 59.42075 -21.73579 32192 ft 446 kts 296°
2026-05-07 22:29 59.44639 -21.84624 32201 ft 445 kts 296°
2026-05-07 22:29 59.47186 -21.95643 32196 ft 445 kts 296°
2026-05-07 22:30 59.49729 -22.06709 32207 ft 447 kts 296°
2026-05-07 22:30 59.52294 -22.17926 32197 ft 447 kts 295°
2026-05-07 22:31 59.54824 -22.29052 32212 ft 447 kts 295°
2026-05-07 22:31 59.57360 -22.40256 32200 ft 444 kts 295°
2026-05-07 22:32 59.59878 -22.51443 32209 ft 446 kts 295°
2026-05-07 22:32 59.62393 -22.62676 32210 ft 446 kts 295°
2026-05-07 22:33 59.64894 -22.73908 32224 ft 449 kts 295°
2026-05-07 22:33 59.67402 -22.85229 32220 ft 449 kts 295°
2026-05-07 22:34 59.69883 -22.96490 32231 ft 447 kts 295°
2026-05-07 22:34 59.72377 -23.07871 32225 ft 450 kts 295°
2026-05-07 22:35 59.74842 -23.19188 32239 ft 448 kts 295°
2026-05-07 22:35 59.77319 -23.30612 32247 ft 454 kts 295°
2026-05-07 22:36 59.79798 -23.42105 32244 ft 457 kts 295°
2026-05-07 22:36 59.82285 -23.53716 32182 ft 457 kts 297°
2026-05-07 22:37 59.84766 -23.65356 32244 ft 458 kts 297°
2026-05-07 22:37 59.87252 -23.77075 32244 ft 460 kts 297°
2026-05-07 22:38 59.89732 -23.88840 32251 ft 461 kts 296°
2026-05-07 22:38 59.92209 -24.00659 32256 ft 462 kts 296°
2026-05-07 22:39 59.94670 -24.12476 32247 ft 461 kts 296°
2026-05-07 22:39 59.97118 -24.24295 32255 ft 460 kts 296°
2026-05-07 22:40 59.99548 -24.36098 32259 ft 459 kts 296°
2026-05-07 22:40 60.01961 -24.47883 32261 ft 458 kts 297°
2026-05-07 22:41 60.04360 -24.59666 32265 ft 457 kts 297°
2026-05-07 22:41 60.06730 -24.71375 32272 ft 456 kts 297°
2026-05-07 22:42 60.09105 -24.83177 32273 ft 456 kts 297°
2026-05-07 22:42 60.11467 -24.94983 32278 ft 456 kts 297°
2026-05-07 22:43 60.13819 -25.06811 32281 ft 456 kts 297°
2026-05-07 22:43 60.16160 -25.18652 32285 ft 456 kts 296°
2026-05-07 22:44 60.18491 -25.30517 32286 ft 456 kts 296°
2026-05-07 22:44 60.20814 -25.42408 32286 ft 456 kts 297°
2026-05-07 22:45 60.23108 -25.54221 32292 ft 456 kts 296°
2026-05-07 22:45 60.25403 -25.66110 32293 ft 456 kts 296°
2026-05-07 22:46 60.27686 -25.78012 32294 ft 455 kts 296°
2026-05-07 22:46 60.29957 -25.89923 32300 ft 455 kts 296°
2026-05-07 22:47 60.32219 -26.01855 32305 ft 455 kts 296°
2026-05-07 22:47 60.34465 -26.13780 32320 ft 455 kts 296°
2026-05-07 22:48 60.36705 -26.25742 32319 ft 454 kts 296°
2026-05-07 22:48 60.38930 -26.37702 32314 ft 454 kts 296°
2026-05-07 22:49 60.41143 -26.49672 32316 ft 454 kts 296°
2026-05-07 22:49 60.43329 -26.61564 32314 ft 454 kts 296°
2026-05-07 22:50 60.45519 -26.73556 32323 ft 453 kts 297°
2026-05-07 22:50 60.47697 -26.85557 32325 ft 453 kts 297°
2026-05-07 22:51 60.49862 -26.97565 32327 ft 453 kts 297°
2026-05-07 22:51 60.52016 -27.09583 32332 ft 453 kts 297°
2026-05-07 22:52 60.54143 -27.21530 32333 ft 452 kts 297°
2026-05-07 22:52 60.56270 -27.33548 32333 ft 452 kts 297°
2026-05-07 22:53 60.58384 -27.45572 32333 ft 451 kts 297°
2026-05-07 22:53 60.60483 -27.57588 32348 ft 450 kts 297°
2026-05-07 22:54 60.62570 -27.69613 32343 ft 450 kts 297°
2026-05-07 22:54 60.64643 -27.81634 32347 ft 449 kts 297°
2026-05-07 22:55 60.66700 -27.93641 32351 ft 448 kts 297°
2026-05-07 22:55 60.68742 -28.05641 32353 ft 447 kts 298°
2026-05-07 22:56 60.70770 -28.17631 32360 ft 446 kts 298°
2026-05-07 22:56 60.72784 -28.29622 32356 ft 446 kts 298°
2026-05-07 22:57 60.74783 -28.41594 32359 ft 445 kts 298°
2026-05-07 22:57 60.76755 -28.53490 32360 ft 444 kts 298°
2026-05-07 22:58 60.78728 -28.65463 32365 ft 444 kts 298°
2026-05-07 22:58 60.80686 -28.77430 32366 ft 443 kts 298°
2026-05-07 22:59 60.82632 -28.89404 32367 ft 442 kts 298°
2026-05-07 22:59 60.84563 -29.01364 32364 ft 442 kts 298°
2026-05-07 23:00 60.86484 -29.13341 32363 ft 441 kts 298°
2026-05-07 23:00 60.88377 -29.25222 32378 ft 441 kts 298°
2026-05-07 23:01 60.90272 -29.37197 32377 ft 441 kts 298°
2026-05-07 23:01 60.92154 -29.49171 32364 ft 440 kts 298°
2026-05-07 23:02 60.94026 -29.61164 32370 ft 440 kts 298°
2026-05-07 23:02 60.95885 -29.73160 32379 ft 440 kts 298°
2026-05-07 23:03 60.97734 -29.85166 32383 ft 440 kts 298°
2026-05-07 23:03 60.99573 -29.97177 32377 ft 440 kts 297°
2026-05-07 23:04 61.01349 -30.09279 32377 ft 442 kts 296°
2026-05-07 23:04 61.03032 -30.21460 32397 ft 442 kts 296°
2026-05-07 23:05 61.04693 -30.33595 32394 ft 442 kts 296°
2026-05-07 23:05 61.06363 -30.45811 32391 ft 442 kts 295°
2026-05-07 23:06 61.08029 -30.58028 32390 ft 442 kts 295°
2026-05-07 23:06 61.09684 -30.70257 32389 ft 442 kts 295°
2026-05-07 23:07 61.11329 -30.82497 32397 ft 442 kts 295°
2026-05-07 23:07 61.12963 -30.94752 32393 ft 442 kts 295°
2026-05-07 23:08 61.14585 -31.07019 32399 ft 442 kts 294°
2026-05-07 23:08 61.16197 -31.19307 32394 ft 442 kts 294°
2026-05-07 23:09 61.17801 -31.31626 32396 ft 442 kts 294°
2026-05-07 23:09 61.19384 -31.43886 32395 ft 443 kts 294°
2026-05-07 23:10 61.20964 -31.56226 32403 ft 443 kts 293°
2026-05-07 23:10 61.22535 -31.68585 32401 ft 443 kts 293°
2026-05-07 23:11 61.24094 -31.80960 32408 ft 443 kts 292°
2026-05-07 23:11 61.25641 -31.93339 32406 ft 443 kts 292°
2026-05-07 23:12 61.27178 -32.05739 32406 ft 443 kts 292°
2026-05-07 23:12 61.28445 -32.16043 32400 ft 443 kts 292°
2026-05-07 23:13 61.29962 -32.28472 32409 ft 443 kts 291°
2026-05-07 23:13 61.31467 -32.40908 32407 ft 443 kts 291°
2026-05-07 23:14 61.32959 -32.53339 32409 ft 443 kts 291°
2026-05-07 23:14 61.34439 -32.65785 32406 ft 443 kts 291°
2026-05-07 23:15 61.35909 -32.78249 32408 ft 443 kts 290°
2026-05-07 23:15 61.37366 -32.90709 32405 ft 443 kts 290°
2026-05-07 23:16 61.38813 -33.03189 32405 ft 443 kts 290°
2026-05-07 23:16 61.40248 -33.15689 32402 ft 443 kts 290°
2026-05-07 23:17 61.41673 -33.28200 32399 ft 443 kts 290°
2026-05-07 23:17 61.43086 -33.40724 32402 ft 443 kts 289°
2026-05-07 23:18 61.44487 -33.53259 32404 ft 443 kts 289°
2026-05-07 23:18 61.45869 -33.65732 32406 ft 443 kts 289°
2026-05-07 23:19 61.47249 -33.78305 32395 ft 443 kts 289°
2026-05-07 23:19 61.48621 -33.90915 32396 ft 444 kts 288°
2026-05-07 23:20 61.49977 -34.03508 32396 ft 444 kts 288°
2026-05-07 23:20 61.51324 -34.16130 32396 ft 444 kts 288°
2026-05-07 23:21 61.52660 -34.28761 32396 ft 444 kts 288°
2026-05-07 23:21 61.53974 -34.41317 32394 ft 444 kts 288°
2026-05-07 23:22 61.55288 -34.53982 32390 ft 444 kts 287°
2026-05-07 23:22 61.56589 -34.66653 32387 ft 445 kts 287°
2026-05-07 23:23 61.57880 -34.79352 32387 ft 445 kts 287°
2026-05-07 23:23 61.59159 -34.92069 32384 ft 445 kts 287°
2026-05-07 23:24 61.60431 -35.04826 32384 ft 446 kts 286°
2026-05-07 23:24 61.61691 -35.17603 32382 ft 446 kts 286°
2026-05-07 23:25 61.62937 -35.30375 32383 ft 446 kts 286°
2026-05-07 23:25 61.64172 -35.43157 32379 ft 446 kts 285°
2026-05-07 23:26 61.65390 -35.55894 32373 ft 447 kts 285°
2026-05-07 23:26 61.66602 -35.68717 32374 ft 447 kts 285°
2026-05-07 23:27 61.68401 -35.87986 32369 ft 447 kts 285°
2026-05-07 23:27 61.69585 -36.00853 32370 ft 447 kts 284°
2026-05-07 23:28 61.70750 -36.13637 32367 ft 447 kts 284°
2026-05-07 23:28 61.71912 -36.26542 32368 ft 448 kts 284°
2026-05-07 23:29 61.73061 -36.39452 32368 ft 448 kts 284°
2026-05-07 23:29 61.74201 -36.52392 32369 ft 448 kts 283°
2026-05-07 23:30 61.75327 -36.65333 32364 ft 448 kts 283°
2026-05-07 23:30 61.76442 -36.78297 32358 ft 449 kts 283°
2026-05-07 23:31 61.77546 -36.91282 32360 ft 449 kts 283°
2026-05-07 23:31 61.78637 -37.04262 32353 ft 449 kts 283°
2026-05-07 23:32 61.79715 -37.17246 32359 ft 448 kts 282°
2026-05-07 23:32 61.80780 -37.30237 32350 ft 448 kts 282°
2026-05-07 23:33 61.81832 -37.43229 32346 ft 448 kts 282°
2026-05-07 23:33 61.82873 -37.56237 32350 ft 448 kts 282°
2026-05-07 23:34 61.83892 -37.69131 32349 ft 447 kts 282°
2026-05-07 23:34 61.84905 -37.82108 32348 ft 447 kts 282°
2026-05-07 23:35 61.85905 -37.95095 32347 ft 446 kts 281°
2026-05-07 23:35 61.86891 -38.08062 32341 ft 446 kts 281°
2026-05-07 23:36 61.87866 -38.21048 32342 ft 446 kts 281°
2026-05-07 23:36 61.88827 -38.34024 32340 ft 445 kts 281°
2026-05-07 23:37 61.89776 -38.47005 32337 ft 445 kts 281°
2026-05-07 23:37 61.90712 -38.59988 32335 ft 445 kts 281°
2026-05-07 23:38 61.91636 -38.72977 32332 ft 445 kts 281°
2026-05-07 23:38 61.92547 -38.85958 32333 ft 445 kts 281°
2026-05-07 23:39 61.93440 -38.98870 32328 ft 445 kts 280°
2026-05-07 23:39 61.94326 -39.11868 32325 ft 445 kts 280°
2026-05-07 23:40 61.95200 -39.24877 32325 ft 445 kts 280°
2026-05-07 23:40 61.96062 -39.37892 32324 ft 445 kts 279°
2026-05-07 23:41 61.96911 -39.50918 32317 ft 445 kts 279°
2026-05-07 23:41 61.97749 -39.63953 32316 ft 445 kts 279°
2026-05-07 23:42 61.98575 -39.76998 32314 ft 445 kts 279°
2026-05-07 23:42 61.99391 -39.90060 32313 ft 445 kts 279°
2026-05-07 23:43 62.00383 -40.03047 32316 ft 444 kts 285°
2026-05-07 23:43 62.02128 -40.15659 32312 ft 444 kts 287°
2026-05-07 23:44 62.03906 -40.28268 32306 ft 444 kts 287°
2026-05-07 23:44 62.05657 -40.40905 32298 ft 445 kts 286°
2026-05-07 23:45 62.07386 -40.53575 32300 ft 444 kts 286°
2026-05-07 23:45 62.09086 -40.66159 32298 ft 444 kts 286°
2026-05-07 23:46 62.10785 -40.78838 32299 ft 444 kts 285°
2026-05-07 23:46 62.12471 -40.91516 32295 ft 443 kts 285°
2026-05-07 23:47 62.14147 -41.04215 32293 ft 443 kts 285°
2026-05-07 23:47 62.15806 -41.16892 32289 ft 442 kts 285°
2026-05-07 23:48 62.17439 -41.29475 32290 ft 441 kts 285°
2026-05-07 23:48 62.19080 -41.42216 32288 ft 441 kts 285°
2026-05-07 23:49 62.20685 -41.54785 32278 ft 440 kts 284°
2026-05-07 23:49 62.22287 -41.67431 32279 ft 439 kts 284°
2026-05-07 23:50 62.23875 -41.80071 32283 ft 439 kts 284°
2026-05-07 23:50 62.25451 -41.92712 32280 ft 438 kts 284°
2026-05-07 23:51 62.27013 -42.05361 32279 ft 438 kts 284°
2026-05-07 23:51 62.28564 -42.18016 32282 ft 438 kts 284°
2026-05-07 23:52 62.30103 -42.30681 32273 ft 438 kts 283°
2026-05-07 23:52 62.31628 -42.43341 32276 ft 437 kts 283°
2026-05-07 23:53 62.33142 -42.56021 32268 ft 438 kts 283°
2026-05-07 23:53 62.34645 -42.68715 32264 ft 437 kts 283°
2026-05-07 23:54 62.36135 -42.81411 32254 ft 437 kts 283°
2026-05-07 23:54 62.37613 -42.94116 32249 ft 437 kts 283°
2026-05-07 23:55 62.39078 -43.06826 32228 ft 437 kts 283°
2026-05-07 23:55 62.40535 -43.19570 32222 ft 437 kts 283°
2026-05-07 23:56 62.41978 -43.32313 32215 ft 437 kts 283°
2026-05-07 23:56 62.43171 -43.42929 32221 ft 437 kts 283°
2026-05-07 23:57 62.44823 -43.57772 32196 ft 438 kts 283°
2026-05-07 23:57 62.46232 -43.70559 32195 ft 437 kts 282°
2026-05-07 23:58 62.47629 -43.83350 32191 ft 437 kts 282°
2026-05-07 23:58 62.48791 -43.94079 32194 ft 437 kts 282°
2026-05-07 23:59 62.50385 -44.08945 32197 ft 436 kts 282°
2026-05-07 23:59 62.51516 -44.19587 32201 ft 436 kts 282°
2026-05-08 00:00 62.52864 -44.32391 32205 ft 435 kts 282°
2026-05-08 00:00 62.54196 -44.45160 32208 ft 434 kts 282°
2026-05-08 00:01 62.55515 -44.57931 32212 ft 434 kts 282°
2026-05-08 00:01 62.56820 -44.70688 32213 ft 433 kts 281°
2026-05-08 00:02 62.58112 -44.83440 32219 ft 432 kts 281°
2026-05-08 00:02 62.59389 -44.96170 32225 ft 431 kts 281°
2026-05-08 00:03 62.60652 -45.08889 32226 ft 431 kts 281°
2026-05-08 00:03 62.61902 -45.21607 32223 ft 431 kts 281°
2026-05-08 00:04 62.63140 -45.34325 32227 ft 430 kts 281°
2026-05-08 00:04 62.64358 -45.46964 32225 ft 430 kts 280°
2026-05-08 00:05 62.65572 -45.59694 32226 ft 429 kts 280°
2026-05-08 00:05 62.66772 -45.72417 32226 ft 429 kts 280°
2026-05-08 00:06 62.67960 -45.85133 32224 ft 428 kts 280°
2026-05-08 00:06 62.69135 -45.97844 32211 ft 428 kts 279°
2026-05-08 00:07 62.70298 -46.10561 32228 ft 428 kts 279°
2026-05-08 00:07 62.71446 -46.23260 32219 ft 427 kts 279°
2026-05-08 00:08 62.72577 -46.35896 32215 ft 427 kts 279°
2026-05-08 00:08 62.73704 -46.48622 32221 ft 427 kts 279°
2026-05-08 00:09 62.74820 -46.61366 32213 ft 427 kts 278°
2026-05-08 00:09 62.75922 -46.74093 32213 ft 427 kts 278°
2026-05-08 00:10 62.77006 -46.86755 32215 ft 427 kts 278°
2026-05-08 00:10 62.78084 -46.99496 32210 ft 426 kts 278°
2026-05-08 00:11 62.79150 -47.12231 32202 ft 426 kts 278°
2026-05-08 00:11 62.80205 -47.24976 32202 ft 426 kts 277°
2026-05-08 00:12 62.81247 -47.37724 32199 ft 426 kts 277°
2026-05-08 00:12 62.82278 -47.50482 32193 ft 426 kts 277°
2026-05-08 00:13 62.83296 -47.63237 32190 ft 426 kts 277°
2026-05-08 00:13 62.84304 -47.76010 32186 ft 425 kts 277°
2026-05-08 00:14 62.85294 -47.88714 32184 ft 425 kts 276°
2026-05-08 00:14 62.86276 -48.01481 32178 ft 425 kts 276°
2026-05-08 00:15 62.87248 -48.14263 32174 ft 425 kts 276°
2026-05-08 00:15 62.88207 -48.27046 32169 ft 425 kts 276°
2026-05-08 00:16 62.89155 -48.39841 32161 ft 425 kts 276°
2026-05-08 00:16 62.90093 -48.52660 32163 ft 425 kts 275°
2026-05-08 00:17 62.91018 -48.65470 32164 ft 425 kts 275°
2026-05-08 00:17 62.91925 -48.78205 32157 ft 425 kts 275°
2026-05-08 00:18 62.92827 -48.91028 32159 ft 425 kts 275°
2026-05-08 00:18 62.93717 -49.03858 32151 ft 425 kts 275°
2026-05-08 00:19 62.94596 -49.16704 32153 ft 425 kts 274°
2026-05-08 00:19 62.95462 -49.29553 32146 ft 425 kts 274°
2026-05-08 00:20 62.96317 -49.42400 32151 ft 425 kts 274°
2026-05-08 00:20 62.97161 -49.55261 32144 ft 425 kts 274°
2026-05-08 00:21 62.97991 -49.68123 32158 ft 424 kts 274°
2026-05-08 00:21 62.98812 -49.80980 32147 ft 425 kts 274°
2026-05-08 00:22 62.99501 -49.93851 32145 ft 421 kts 268°
2026-05-08 00:22 62.99234 -50.06672 32151 ft 419 kts 261°
2026-05-08 00:23 62.98173 -50.19166 32148 ft 417 kts 255°
2026-05-08 00:23 62.96910 -50.31632 32153 ft 418 kts 255°
2026-05-08 00:24 62.95639 -50.44109 32145 ft 419 kts 255°
2026-05-08 00:24 62.94371 -50.56597 32151 ft 419 kts 255°
2026-05-08 00:25 62.93102 -50.69062 32151 ft 418 kts 255°
2026-05-08 00:25 62.91822 -50.81531 32151 ft 418 kts 255°
2026-05-08 00:26 62.90534 -50.93967 32152 ft 418 kts 254°
2026-05-08 00:26 62.89235 -51.06386 32153 ft 417 kts 254°
2026-05-08 00:27 62.87926 -51.18791 32143 ft 417 kts 254°
2026-05-08 00:27 62.86615 -51.31088 32142 ft 417 kts 254°
2026-05-08 00:28 62.85286 -51.43452 32134 ft 417 kts 253°
2026-05-08 00:28 62.83945 -51.55816 32130 ft 417 kts 253°
2026-05-08 00:29 62.82592 -51.68171 32129 ft 417 kts 253°
2026-05-08 00:29 62.81229 -51.80512 32128 ft 418 kts 253°
2026-05-08 00:30 62.79855 -51.92845 32124 ft 418 kts 253°
2026-05-08 00:30 62.78470 -52.05173 32121 ft 418 kts 253°
2026-05-08 00:31 62.77074 -52.17482 32114 ft 418 kts 252°
2026-05-08 00:31 62.75668 -52.29778 32108 ft 418 kts 252°
2026-05-08 00:32 62.74249 -52.42082 32109 ft 418 kts 252°
2026-05-08 00:32 62.72821 -52.54355 32093 ft 418 kts 252°
2026-05-08 00:33 62.71382 -52.66623 32098 ft 418 kts 252°
2026-05-08 00:33 62.69931 -52.78883 32096 ft 418 kts 252°
2026-05-08 00:34 62.68478 -52.91065 32091 ft 418 kts 251°
2026-05-08 00:34 62.67004 -53.03323 32082 ft 419 kts 251°
2026-05-08 00:35 62.65517 -53.15585 32085 ft 419 kts 251°
2026-05-08 00:35 62.64019 -53.27833 32076 ft 419 kts 251°
2026-05-08 00:36 62.62510 -53.40077 32081 ft 420 kts 251°
2026-05-08 00:36 62.60988 -53.52322 32070 ft 420 kts 251°
2026-05-08 00:37 62.59456 -53.64555 32076 ft 420 kts 250°
2026-05-08 00:38 62.57142 -53.82846 32057 ft 421 kts 250°
2026-05-08 00:38 62.55580 -53.95071 32063 ft 421 kts 250°
2026-05-08 00:39 62.54007 -54.07286 32056 ft 421 kts 250°
2026-05-08 00:39 62.52421 -54.19509 32052 ft 421 kts 250°
2026-05-08 00:40 62.50822 -54.31731 32049 ft 422 kts 250°
2026-05-08 00:40 62.49214 -54.43930 32042 ft 422 kts 249°
2026-05-08 00:41 62.47604 -54.56056 32037 ft 422 kts 249°
2026-05-08 00:41 62.45971 -54.68254 32036 ft 422 kts 249°
2026-05-08 00:42 62.44329 -54.80434 32031 ft 423 kts 249°
2026-05-08 00:42 62.42672 -54.92625 32029 ft 423 kts 249°
2026-05-08 00:43 62.41006 -55.04799 32024 ft 423 kts 249°
2026-05-08 00:43 62.39325 -55.16981 32019 ft 423 kts 249°
2026-05-08 00:44 62.37635 -55.29147 32023 ft 424 kts 248°
2026-05-08 00:44 62.35935 -55.41291 32018 ft 424 kts 248°
2026-05-08 00:45 62.34222 -55.53440 32008 ft 424 kts 248°
2026-05-08 00:45 62.32497 -55.65583 32005 ft 424 kts 248°
2026-05-08 00:46 62.30773 -55.77631 31998 ft 424 kts 248°
2026-05-08 00:46 62.29027 -55.89749 31994 ft 424 kts 248°
2026-05-08 00:47 62.27270 -56.01854 31988 ft 424 kts 248°
2026-05-08 00:47 62.25501 -56.13951 31986 ft 424 kts 247°
2026-05-08 00:48 62.24025 -56.23984 31980 ft 424 kts 247°
2026-05-08 00:48 62.22239 -56.36045 31980 ft 424 kts 247°
2026-05-08 00:49 62.20438 -56.48118 31979 ft 425 kts 247°
2026-05-08 00:49 62.18334 -56.62122 31968 ft 425 kts 247°
2026-05-08 00:50 62.16807 -56.72210 31967 ft 425 kts 246°
2026-05-08 00:50 62.14972 -56.84262 31965 ft 426 kts 246°
2026-05-08 00:51 62.13139 -56.96216 31960 ft 426 kts 246°
2026-05-08 00:51 62.11278 -57.08268 31958 ft 427 kts 246°
2026-05-08 00:52 62.09406 -57.20312 31951 ft 427 kts 246°
2026-05-08 00:52 62.07524 -57.32340 31946 ft 428 kts 246°
2026-05-08 00:53 62.05629 -57.44365 31943 ft 428 kts 246°
2026-05-08 00:53 62.03723 -57.56386 31922 ft 428 kts 245°
2026-05-08 00:54 62.01816 -57.68330 31927 ft 429 kts 245°
2026-05-08 00:54 61.99887 -57.80350 31922 ft 429 kts 245°
2026-05-08 00:55 61.98019 -57.92402 31913 ft 432 kts 252°
2026-05-08 00:55 61.97768 -57.98845 31938 ft 445 kts 265°
2026-05-08 00:55 61.98161 -58.05444 31927 ft 456 kts 276°
2026-05-08 00:55 61.99218 -58.11889 31929 ft 467 kts 288°
2026-05-08 00:56 62.00659 -58.18119 31939 ft 469 kts 289°
2026-05-08 00:56 62.03627 -58.30544 31932 ft 472 kts 289°
2026-05-08 00:57 62.06554 -58.43000 31933 ft 472 kts 289°
2026-05-08 00:57 62.09437 -58.55585 31929 ft 471 kts 288°
2026-05-08 00:58 62.12279 -58.68177 31924 ft 470 kts 288°
2026-05-08 00:58 62.15096 -58.80748 31920 ft 468 kts 288°
2026-05-08 00:59 62.17893 -58.93297 31917 ft 466 kts 288°
2026-05-08 00:59 62.20669 -59.05819 31917 ft 465 kts 288°
2026-05-08 01:00 62.23431 -59.18353 31926 ft 464 kts 288°
2026-05-08 01:00 62.26176 -59.30881 31912 ft 464 kts 288°
2026-05-08 01:01 62.28907 -59.43422 31917 ft 464 kts 288°
2026-05-08 01:01 62.31613 -59.55925 31910 ft 464 kts 287°
2026-05-08 01:02 62.34328 -59.68539 31916 ft 465 kts 287°
2026-05-08 01:02 62.37034 -59.81194 31924 ft 466 kts 287°
2026-05-08 01:03 62.39740 -59.93919 31921 ft 467 kts 287°
2026-05-08 01:03 62.42437 -60.06678 31909 ft 467 kts 287°
2026-05-08 01:04 62.45121 -60.19449 31902 ft 467 kts 287°
2026-05-08 01:04 62.47787 -60.32221 31906 ft 466 kts 287°
2026-05-08 01:05 62.50442 -60.45015 31902 ft 465 kts 287°
2026-05-08 01:05 62.53080 -60.57810 31904 ft 465 kts 287°
2026-05-08 01:06 62.55703 -60.70613 31902 ft 465 kts 287°
2026-05-08 01:06 62.58298 -60.83353 31904 ft 465 kts 286°
2026-05-08 01:07 62.60899 -60.96209 31900 ft 465 kts 286°
2026-05-08 01:07 62.63491 -61.09097 31903 ft 465 kts 286°
2026-05-08 01:08 62.66070 -61.22006 31902 ft 465 kts 286°
2026-05-08 01:08 62.68640 -61.34948 31903 ft 466 kts 286°
2026-05-08 01:09 62.71198 -61.47913 31902 ft 466 kts 285°
2026-05-08 01:09 62.73729 -61.60821 31904 ft 466 kts 285°
2026-05-08 01:10 62.76265 -61.73840 31893 ft 466 kts 285°
2026-05-08 01:10 62.78787 -61.86866 31891 ft 466 kts 285°
2026-05-08 01:11 62.81298 -61.99928 31900 ft 466 kts 285°
2026-05-08 01:11 62.83800 -62.13025 31898 ft 466 kts 285°
2026-05-08 01:12 62.86292 -62.26156 31907 ft 466 kts 285°
2026-05-08 01:12 62.88770 -62.39305 31906 ft 467 kts 285°
2026-05-08 01:13 62.91236 -62.52473 31904 ft 467 kts 284°
2026-05-08 01:13 62.93691 -62.65668 31898 ft 467 kts 284°
2026-05-08 01:14 62.96119 -62.78812 31902 ft 467 kts 284°
2026-05-08 01:14 62.98555 -62.92073 31904 ft 467 kts 284°
2026-05-08 01:15 63.00940 -63.05359 31903 ft 466 kts 283°
2026-05-08 01:15 63.03062 -63.18797 31901 ft 464 kts 281°
2026-05-08 01:16 63.05112 -63.32296 31896 ft 464 kts 281°
2026-05-08 01:16 63.07179 -63.45809 31900 ft 465 kts 282°
2026-05-08 01:17 63.09256 -63.59336 31901 ft 466 kts 282°
2026-05-08 01:17 63.11333 -63.72905 31905 ft 467 kts 282°
2026-05-08 01:18 63.13401 -63.86525 31906 ft 468 kts 282°
2026-05-08 01:18 63.15460 -64.00198 31907 ft 469 kts 282°
2026-05-08 01:19 63.17493 -64.13810 31907 ft 469 kts 282°
2026-05-08 01:19 63.19531 -64.27560 31905 ft 470 kts 282°
2026-05-08 01:20 63.21558 -64.41345 31907 ft 471 kts 282°
2026-05-08 01:20 63.23573 -64.55159 31907 ft 471 kts 282°
2026-05-08 01:21 63.25581 -64.69038 31911 ft 472 kts 282°
2026-05-08 01:21 63.27576 -64.82938 31902 ft 472 kts 282°
2026-05-08 01:22 63.29558 -64.96862 31902 ft 473 kts 282°
2026-05-08 01:22 63.31532 -65.10839 31902 ft 474 kts 282°
2026-05-08 01:23 63.33491 -65.24836 31903 ft 474 kts 282°
2026-05-08 01:23 63.35427 -65.38790 31896 ft 474 kts 282°
2026-05-08 01:24 63.37364 -65.52856 31891 ft 475 kts 282°
2026-05-08 01:24 63.39292 -65.66976 31893 ft 475 kts 282°
2026-05-08 01:25 63.41201 -65.81090 31883 ft 475 kts 282°
2026-05-08 01:25 63.43101 -65.95243 31873 ft 476 kts 282°
2026-05-08 01:26 63.44986 -66.09424 31879 ft 476 kts 282°
2026-05-08 01:26 63.46857 -66.23615 31865 ft 476 kts 282°
2026-05-08 01:27 63.48716 -66.37843 31870 ft 476 kts 282°
2026-05-08 01:27 63.50550 -66.52001 31875 ft 477 kts 282°
2026-05-08 01:28 63.52383 -66.66281 31864 ft 477 kts 282°
2026-05-08 01:28 63.54202 -66.80586 31864 ft 477 kts 282°
2026-05-08 01:29 63.56009 -66.94922 31862 ft 478 kts 282°
2026-05-08 01:29 63.57802 -67.09274 31855 ft 478 kts 282°
2026-05-08 01:30 63.59581 -67.23653 31861 ft 478 kts 281°
2026-05-08 01:30 63.61347 -67.38059 31852 ft 478 kts 281°
2026-05-08 01:31 63.63098 -67.52487 31851 ft 478 kts 281°
2026-05-08 01:31 63.64835 -67.66933 31847 ft 478 kts 281°
2026-05-08 01:32 63.66557 -67.81387 31846 ft 478 kts 281°
2026-05-08 01:32 63.68266 -67.95872 31838 ft 478 kts 281°
2026-05-08 01:33 63.69949 -68.10276 31838 ft 478 kts 281°
2026-05-08 01:33 63.71631 -68.24802 31836 ft 478 kts 281°
2026-05-08 01:34 63.73281 -68.39337 31836 ft 477 kts 278°
2026-05-08 01:34 63.74046 -68.54101 31833 ft 471 kts 267°
2026-05-08 01:35 63.73752 -68.68816 31841 ft 468 kts 263°
2026-05-08 01:35 63.73331 -68.83491 31835 ft 469 kts 263°
2026-05-08 01:36 63.72918 -68.98192 31836 ft 469 kts 263°
2026-05-08 01:36 63.72511 -69.12907 31835 ft 470 kts 263°
2026-05-08 01:37 63.72168 -69.25145 31832 ft 470 kts 263°
2026-05-08 01:37 63.71671 -69.42261 31824 ft 471 kts 263°
2026-05-08 01:38 63.71227 -69.57006 31815 ft 471 kts 262°
2026-05-08 01:38 63.70766 -69.71732 31815 ft 471 kts 262°
2026-05-08 01:39 63.70290 -69.86476 31814 ft 471 kts 262°
2026-05-08 01:39 63.69799 -70.01223 31808 ft 472 kts 262°
2026-05-08 01:40 63.69378 -70.13482 31810 ft 472 kts 262°
2026-05-08 01:40 63.68859 -70.28217 31807 ft 472 kts 262°
2026-05-08 01:41 63.68324 -70.42969 31801 ft 472 kts 262°
2026-05-08 01:41 63.67774 -70.57709 31795 ft 472 kts 262°
2026-05-08 01:42 63.67209 -70.72442 31794 ft 472 kts 262°
2026-05-08 01:42 63.66629 -70.87186 31791 ft 473 kts 262°
2026-05-08 01:43 63.66033 -71.01942 31787 ft 473 kts 261°
2026-05-08 01:43 63.65424 -71.16617 31776 ft 474 kts 261°
2026-05-08 01:44 63.64797 -71.31387 31777 ft 474 kts 261°
2026-05-08 01:44 63.64153 -71.46168 31771 ft 474 kts 261°
2026-05-08 01:45 63.63494 -71.60960 31766 ft 475 kts 261°
2026-05-08 01:45 63.62819 -71.75739 31760 ft 475 kts 261°
2026-05-08 01:46 63.62129 -71.90517 31755 ft 475 kts 261°
2026-05-08 01:46 63.61424 -72.05301 31750 ft 476 kts 261°
2026-05-08 01:47 63.60702 -72.20091 31742 ft 476 kts 261°
2026-05-08 01:47 63.59966 -72.34874 31738 ft 476 kts 261°
2026-05-08 01:48 63.58831 -72.57061 31730 ft 477 kts 260°
2026-05-08 01:48 63.58059 -72.71769 31723 ft 477 kts 260°
2026-05-08 01:49 63.57267 -72.86557 31718 ft 478 kts 260°
2026-05-08 01:49 63.56459 -73.01361 31711 ft 478 kts 260°
2026-05-08 01:50 63.55635 -73.16168 31705 ft 478 kts 260°
2026-05-08 01:50 63.54795 -73.30973 31704 ft 479 kts 260°
2026-05-08 01:51 63.53939 -73.45786 31691 ft 479 kts 259°
2026-05-08 01:51 63.53069 -73.60589 31692 ft 479 kts 259°
2026-05-08 01:52 63.52181 -73.75411 31689 ft 480 kts 259°
2026-05-08 01:52 63.51278 -73.90221 31684 ft 480 kts 259°
2026-05-08 01:53 63.50358 -74.05043 31675 ft 480 kts 259°
2026-05-08 01:53 63.49423 -74.19848 31671 ft 480 kts 259°
2026-05-08 01:54 63.48479 -74.34552 31666 ft 481 kts 259°
2026-05-08 01:54 63.47513 -74.49364 31662 ft 481 kts 259°
2026-05-08 01:55 63.46530 -74.64171 31655 ft 481 kts 259°
2026-05-08 01:55 63.45531 -74.78995 31655 ft 482 kts 259°
2026-05-08 01:56 63.44516 -74.93806 31642 ft 482 kts 259°
2026-05-08 01:56 63.43487 -75.08603 31643 ft 482 kts 259°
2026-05-08 01:57 63.42441 -75.23404 31637 ft 482 kts 258°
2026-05-08 01:57 63.41386 -75.38106 31634 ft 482 kts 258°
2026-05-08 01:58 63.40310 -75.52877 31629 ft 482 kts 258°
2026-05-08 01:58 63.39217 -75.67659 31624 ft 483 kts 258°
2026-05-08 01:59 63.38110 -75.82415 31620 ft 483 kts 258°
2026-05-08 01:59 63.36986 -75.97179 31611 ft 483 kts 258°
2026-05-08 02:00 63.35848 -76.11925 31614 ft 483 kts 258°
2026-05-08 02:00 63.34692 -76.26689 31605 ft 483 kts 258°
2026-05-08 02:01 63.33522 -76.41433 31602 ft 484 kts 258°
2026-05-08 02:01 63.32335 -76.56173 31603 ft 484 kts 258°
2026-05-08 02:02 63.31139 -76.70839 31598 ft 484 kts 258°
2026-05-08 02:02 63.29922 -76.85561 31595 ft 484 kts 257°
2026-05-08 02:03 63.28686 -77.00309 31592 ft 485 kts 257°
2026-05-08 02:03 63.27435 -77.15042 31586 ft 485 kts 257°
2026-05-08 02:04 63.26170 -77.29760 31585 ft 485 kts 257°
2026-05-08 02:04 63.24889 -77.44463 31582 ft 485 kts 257°
2026-05-08 02:05 63.23593 -77.59165 31583 ft 485 kts 257°
2026-05-08 02:05 63.22281 -77.73850 31572 ft 486 kts 257°
2026-05-08 02:06 63.20959 -77.88456 31568 ft 486 kts 257°
2026-05-08 02:06 63.19617 -78.03118 31584 ft 486 kts 257°
2026-05-08 02:07 63.18258 -78.17786 31571 ft 486 kts 257°
2026-05-08 02:07 63.16884 -78.32441 31570 ft 486 kts 257°
2026-05-08 02:08 63.15495 -78.47078 31568 ft 486 kts 257°
2026-05-08 02:08 63.14090 -78.61708 31563 ft 486 kts 256°
2026-05-08 02:09 63.12669 -78.76336 31562 ft 486 kts 256°
2026-05-08 02:09 63.11243 -78.90853 31559 ft 487 kts 256°
2026-05-08 02:10 63.09790 -79.05478 31555 ft 487 kts 256°
2026-05-08 02:10 63.08322 -79.20083 31549 ft 487 kts 256°
2026-05-08 02:11 63.06839 -79.34676 31544 ft 487 kts 256°
2026-05-08 02:11 63.05340 -79.49258 31543 ft 488 kts 256°
2026-05-08 02:12 63.03824 -79.63854 31537 ft 488 kts 256°
2026-05-08 02:12 63.02295 -79.78421 31533 ft 488 kts 256°
2026-05-08 02:13 63.00761 -79.92899 31525 ft 488 kts 255°
2026-05-08 02:13 62.98962 -80.07287 31525 ft 487 kts 250°
2026-05-08 02:14 62.96760 -80.21399 31517 ft 487 kts 249°
2026-05-08 02:14 62.94535 -80.35444 31510 ft 487 kts 249°
2026-05-08 02:15 62.92315 -80.49513 31508 ft 487 kts 250°
2026-05-08 02:15 62.90097 -80.63563 31502 ft 487 kts 250°
2026-05-08 02:16 62.87868 -80.77604 31494 ft 487 kts 249°
2026-05-08 02:16 62.85624 -80.91618 31494 ft 487 kts 249°
2026-05-08 02:17 62.83367 -81.05600 31489 ft 487 kts 249°
2026-05-08 02:17 62.81110 -81.19475 31491 ft 487 kts 249°
2026-05-08 02:18 62.78825 -81.33414 31485 ft 487 kts 249°
2026-05-08 02:18 62.76525 -81.47338 31481 ft 487 kts 249°
2026-05-08 02:19 62.74212 -81.61234 31478 ft 487 kts 249°
2026-05-08 02:19 62.71882 -81.75129 31475 ft 487 kts 249°
2026-05-08 02:20 62.69541 -81.88988 31474 ft 487 kts 249°
2026-05-08 02:20 62.67189 -82.02811 31471 ft 487 kts 249°
2026-05-08 02:21 62.64823 -82.16612 31463 ft 487 kts 249°
2026-05-08 02:21 62.62456 -82.30320 31466 ft 486 kts 249°
2026-05-08 02:22 62.60066 -82.44060 31464 ft 486 kts 248°
2026-05-08 02:22 62.57663 -82.57777 31460 ft 486 kts 248°
2026-05-08 02:23 62.55248 -82.71465 31461 ft 486 kts 248°
2026-05-08 02:23 62.52820 -82.85123 31454 ft 486 kts 248°
2026-05-08 02:24 62.50379 -82.98763 31452 ft 486 kts 248°
2026-05-08 02:24 62.47926 -83.12368 31452 ft 486 kts 248°
2026-05-08 02:25 62.45460 -83.25952 31450 ft 485 kts 248°
2026-05-08 02:25 62.42982 -83.39509 31446 ft 485 kts 248°
2026-05-08 02:26 62.40493 -83.53033 31447 ft 485 kts 248°
2026-05-08 02:26 62.38414 -83.64255 31444 ft 485 kts 247°
2026-05-08 02:27 62.35490 -83.79930 31443 ft 485 kts 247°
2026-05-08 02:27 62.33372 -83.91210 31441 ft 485 kts 247°
2026-05-08 02:28 62.30833 -84.04642 31439 ft 485 kts 247°
2026-05-08 02:28 62.28282 -84.18052 31439 ft 485 kts 247°
2026-05-08 02:29 62.25717 -84.31441 31440 ft 485 kts 247°
2026-05-08 02:29 62.23156 -84.44719 31441 ft 485 kts 247°
2026-05-08 02:30 62.20564 -84.58074 31440 ft 485 kts 246°
2026-05-08 02:30 62.17957 -84.71416 31439 ft 485 kts 246°
2026-05-08 02:31 62.15341 -84.84713 31445 ft 486 kts 246°
2026-05-08 02:31 62.12707 -84.98014 31441 ft 486 kts 246°
2026-05-08 02:32 62.10059 -85.11299 31442 ft 486 kts 246°
2026-05-08 02:32 62.07395 -85.24578 31445 ft 487 kts 246°
2026-05-08 02:33 62.04716 -85.37841 31445 ft 487 kts 246°
2026-05-08 02:33 62.02020 -85.51107 31446 ft 488 kts 246°
2026-05-08 02:34 61.99310 -85.64350 31446 ft 488 kts 246°
2026-05-08 02:34 61.96604 -85.77491 31450 ft 488 kts 246°
2026-05-08 02:35 61.93864 -85.90715 31448 ft 489 kts 246°
2026-05-08 02:35 61.91109 -86.03926 31452 ft 489 kts 246°
2026-05-08 02:36 61.88344 -86.17100 31454 ft 489 kts 246°
2026-05-08 02:36 61.85561 -86.30276 31454 ft 489 kts 245°
2026-05-08 02:37 61.82770 -86.43401 31455 ft 489 kts 245°
2026-05-08 02:37 61.79965 -86.56517 31459 ft 489 kts 245°
2026-05-08 02:38 61.77170 -86.69500 31455 ft 488 kts 245°
2026-05-08 02:38 61.74345 -86.82543 31457 ft 488 kts 245°
2026-05-08 02:39 61.71508 -86.95560 31464 ft 488 kts 245°
2026-05-08 02:39 61.68657 -87.08561 31462 ft 488 kts 245°
2026-05-08 02:40 61.65798 -87.21518 31462 ft 488 kts 245°
2026-05-08 02:40 61.62922 -87.34474 31466 ft 488 kts 245°
2026-05-08 02:41 61.60036 -87.47395 31468 ft 488 kts 245°
2026-05-08 02:41 61.57153 -87.60226 31471 ft 489 kts 245°
2026-05-08 02:42 61.54239 -87.73113 31470 ft 489 kts 245°
2026-05-08 02:42 61.51315 -87.85970 31475 ft 489 kts 245°
2026-05-08 02:43 61.48379 -87.98803 31477 ft 489 kts 245°
2026-05-08 02:43 61.45430 -88.11614 31476 ft 489 kts 244°
2026-05-08 02:44 61.42468 -88.24406 31482 ft 489 kts 244°
2026-05-08 02:44 61.39493 -88.37174 31482 ft 489 kts 244°
2026-05-08 02:45 61.36507 -88.49917 31486 ft 489 kts 244°
2026-05-08 02:45 61.33508 -88.62644 31484 ft 489 kts 244°
2026-05-08 02:46 61.30500 -88.75332 31491 ft 489 kts 244°
2026-05-08 02:46 61.27473 -88.88024 31491 ft 489 kts 244°
2026-05-08 02:47 61.24440 -89.00666 31493 ft 489 kts 244°
2026-05-08 02:47 61.21417 -89.13201 31496 ft 489 kts 244°
2026-05-08 02:48 61.18360 -89.25797 31495 ft 489 kts 244°
2026-05-08 02:48 61.15292 -89.38369 31499 ft 489 kts 244°
2026-05-08 02:49 61.12210 -89.50928 31505 ft 489 kts 244°
2026-05-08 02:49 61.09118 -89.63452 31507 ft 489 kts 244°
2026-05-08 02:50 61.06016 -89.75951 31509 ft 489 kts 244°
2026-05-08 02:50 61.02901 -89.88439 31514 ft 489 kts 244°
2026-05-08 02:51 60.99739 -90.00864 31516 ft 490 kts 241°
2026-05-08 02:51 60.96019 -90.12648 31523 ft 490 kts 237°
2026-05-08 02:52 60.92195 -90.24300 31516 ft 491 kts 237°
2026-05-08 02:52 60.88405 -90.35867 31520 ft 491 kts 237°
2026-05-08 02:53 60.84602 -90.47499 31525 ft 491 kts 237°
2026-05-08 02:53 60.80791 -90.59126 31526 ft 491 kts 237°
2026-05-08 02:54 60.76971 -90.70721 31530 ft 491 kts 237°
2026-05-08 02:54 60.73141 -90.82287 31531 ft 491 kts 237°
2026-05-08 02:55 60.67379 -90.99574 31538 ft 491 kts 237°
2026-05-08 02:56 60.63527 -91.11058 31538 ft 491 kts 237°
2026-05-08 02:56 60.59667 -91.22510 31543 ft 491 kts 237°
2026-05-08 02:57 60.55821 -91.33866 31547 ft 490 kts 237°
2026-05-08 02:57 60.51937 -91.45278 31549 ft 490 kts 237°
2026-05-08 02:58 60.48048 -91.56648 31550 ft 490 kts 237°
2026-05-08 02:58 60.44149 -91.67991 31554 ft 490 kts 237°
2026-05-08 02:59 60.40241 -91.79306 31557 ft 490 kts 237°
2026-05-08 02:59 60.36324 -91.90592 31559 ft 490 kts 237°
2026-05-08 03:00 60.32398 -92.01847 31564 ft 490 kts 237°
2026-05-08 03:00 60.28462 -92.13080 31562 ft 490 kts 237°
2026-05-08 03:01 60.24519 -92.24277 31569 ft 490 kts 237°
2026-05-08 03:01 60.20566 -92.35450 31566 ft 490 kts 237°
2026-05-08 03:02 60.16606 -92.46590 31588 ft 490 kts 236°
2026-05-08 03:02 60.12632 -92.57715 31592 ft 490 kts 236°
2026-05-08 03:03 60.08650 -92.68809 31581 ft 490 kts 236°
2026-05-08 03:03 60.04686 -92.79800 31580 ft 490 kts 236°
2026-05-08 03:04 60.00686 -92.90841 31583 ft 490 kts 236°
2026-05-08 03:04 59.96682 -93.01841 31592 ft 489 kts 236°
2026-05-08 03:05 59.92671 -93.12808 31594 ft 489 kts 236°
2026-05-08 03:05 59.88647 -93.23757 31598 ft 489 kts 236°
2026-05-08 03:06 59.84620 -93.34665 31601 ft 489 kts 236°
2026-05-08 03:06 59.80588 -93.45538 31604 ft 488 kts 236°
2026-05-08 03:07 59.76548 -93.56377 31612 ft 488 kts 236°
2026-05-08 03:07 59.72502 -93.67185 31609 ft 488 kts 236°
2026-05-08 03:08 59.68449 -93.77963 31621 ft 488 kts 236°
2026-05-08 03:08 59.64389 -93.88709 31625 ft 488 kts 236°
2026-05-08 03:09 59.60349 -93.99354 31626 ft 487 kts 236°
2026-05-08 03:09 59.56277 -94.10034 31631 ft 487 kts 236°
2026-05-08 03:10 59.52187 -94.20712 31638 ft 487 kts 236°
2026-05-08 03:10 59.48099 -94.31338 31641 ft 487 kts 236°
2026-05-08 03:11 59.43996 -94.41955 31643 ft 487 kts 236°
2026-05-08 03:11 59.39884 -94.52545 31650 ft 487 kts 236°
2026-05-08 03:12 59.35769 -94.63096 31662 ft 487 kts 235°
2026-05-08 03:12 59.31643 -94.73627 31673 ft 487 kts 235°
2026-05-08 03:13 59.27507 -94.84137 31678 ft 487 kts 235°
2026-05-08 03:13 59.23365 -94.94618 31695 ft 487 kts 235°
2026-05-08 03:14 59.19914 -95.03311 31677 ft 487 kts 235°
2026-05-08 03:14 59.15082 -95.15431 31697 ft 487 kts 235°
2026-05-08 03:15 59.11588 -95.24158 31704 ft 487 kts 235°
2026-05-08 03:15 59.06733 -95.36228 31711 ft 487 kts 235°
2026-05-08 03:16 59.03259 -95.44828 31714 ft 487 kts 235°
2026-05-08 03:16 58.99068 -95.55159 31720 ft 487 kts 235°
2026-05-08 03:17 58.94877 -95.65445 31727 ft 486 kts 235°
2026-05-08 03:17 58.90677 -95.75710 31732 ft 486 kts 235°
2026-05-08 03:18 58.86472 -95.85941 31740 ft 486 kts 235°
2026-05-08 03:18 58.82254 -95.96160 31746 ft 486 kts 235°
2026-05-08 03:19 58.78035 -96.06338 31758 ft 486 kts 235°
2026-05-08 03:19 58.73804 -96.16500 31759 ft 486 kts 235°
2026-05-08 03:20 58.69564 -96.26639 31764 ft 486 kts 235°
2026-05-08 03:20 58.65346 -96.36682 31767 ft 486 kts 234°
2026-05-08 03:21 58.61098 -96.46754 31773 ft 485 kts 234°
2026-05-08 03:21 58.56848 -96.56789 31783 ft 485 kts 234°
2026-05-08 03:22 58.52589 -96.66801 31786 ft 484 kts 234°
2026-05-08 03:22 58.48321 -96.76791 31790 ft 484 kts 234°
2026-05-08 03:23 58.44052 -96.86741 31796 ft 484 kts 234°
2026-05-08 03:23 58.39776 -96.96668 31799 ft 484 kts 234°
2026-05-08 03:24 58.35496 -97.06560 31806 ft 483 kts 234°
2026-05-08 03:24 58.31208 -97.16430 31805 ft 483 kts 234°
2026-05-08 03:25 58.26946 -97.26199 31812 ft 483 kts 234°
2026-05-08 03:25 58.22657 -97.35989 31817 ft 482 kts 234°
2026-05-08 03:26 58.18363 -97.45749 31824 ft 482 kts 234°
2026-05-08 03:26 58.14065 -97.55479 31826 ft 482 kts 234°
2026-05-08 03:27 58.09760 -97.65183 31833 ft 481 kts 234°
2026-05-08 03:27 58.05452 -97.74855 31834 ft 481 kts 234°
2026-05-08 03:28 58.01140 -97.84495 31835 ft 480 kts 234°
2026-05-08 03:28 57.96826 -97.94101 31838 ft 480 kts 234°
2026-05-08 03:29 57.92506 -98.03683 31836 ft 479 kts 234°
2026-05-08 03:29 57.88218 -98.13153 31840 ft 478 kts 234°
2026-05-08 03:30 57.81738 -98.27395 31846 ft 477 kts 234°
2026-05-08 03:31 57.73093 -98.46258 31844 ft 476 kts 234°
2026-05-08 03:32 57.66601 -98.60326 31844 ft 476 kts 234°
2026-05-08 03:32 57.62271 -98.69663 31850 ft 475 kts 234°
2026-05-08 03:33 57.57939 -98.78966 31846 ft 475 kts 234°
2026-05-08 03:33 57.53604 -98.88240 31847 ft 474 kts 234°
2026-05-08 03:34 57.49266 -98.97483 31866 ft 474 kts 234°
2026-05-08 03:34 57.44918 -99.06713 31860 ft 474 kts 234°
2026-05-08 03:35 57.40593 -99.15856 31857 ft 474 kts 234°
2026-05-08 03:35 57.36237 -99.25030 31856 ft 474 kts 234°
2026-05-08 03:36 57.31872 -99.34186 31855 ft 474 kts 234°
2026-05-08 03:36 57.27500 -99.43322 31855 ft 474 kts 234°
2026-05-08 03:37 57.23123 -99.52434 31857 ft 474 kts 233°
2026-05-08 03:37 57.18745 -99.61511 31858 ft 474 kts 233°
2026-05-08 03:38 57.14358 -99.70573 31859 ft 473 kts 233°
2026-05-08 03:38 57.09963 -99.79618 31865 ft 473 kts 233°
2026-05-08 03:39 57.05571 -99.88623 31865 ft 473 kts 233°
2026-05-08 03:39 57.01204 -99.97544 31867 ft 473 kts 233°
2026-05-08 03:40 56.96722 -100.06386 31869 ft 474 kts 231°
2026-05-08 03:40 56.92066 -100.14977 31871 ft 475 kts 231°
2026-05-08 03:41 56.87402 -100.23520 31863 ft 474 kts 231°
2026-05-08 03:41 56.82757 -100.32074 31867 ft 474 kts 231°
2026-05-08 03:42 56.78122 -100.40624 31865 ft 474 kts 231°
2026-05-08 03:42 56.73488 -100.49151 31862 ft 473 kts 231°
2026-05-08 03:43 56.68872 -100.57611 31857 ft 473 kts 231°
2026-05-08 03:43 56.64195 -100.66146 31858 ft 473 kts 231°
2026-05-08 03:44 56.59573 -100.74549 31871 ft 473 kts 231°
2026-05-08 03:44 56.54914 -100.82990 31874 ft 473 kts 231°
2026-05-08 03:45 56.50251 -100.91406 31870 ft 473 kts 230°
2026-05-08 03:45 56.45581 -100.99805 31871 ft 473 kts 230°
2026-05-08 03:46 56.40903 -101.08185 31872 ft 473 kts 230°
2026-05-08 03:46 56.36230 -101.16527 31876 ft 473 kts 230°
2026-05-08 03:47 56.31547 -101.24857 31878 ft 473 kts 230°
2026-05-08 03:47 56.26861 -101.33161 31882 ft 473 kts 230°
2026-05-08 03:48 56.22166 -101.41451 31883 ft 472 kts 229°
2026-05-08 03:48 56.17477 -101.49700 31883 ft 472 kts 229°
2026-05-08 03:49 56.12778 -101.57938 31875 ft 472 kts 229°
2026-05-08 03:49 56.08114 -101.66085 31893 ft 472 kts 229°
2026-05-08 03:50 56.03383 -101.74320 31892 ft 471 kts 229°
2026-05-08 03:50 55.98706 -101.82431 31888 ft 471 kts 229°
2026-05-08 03:51 55.93991 -101.90577 31883 ft 471 kts 229°
2026-05-08 03:51 55.89276 -101.98695 31895 ft 471 kts 229°
2026-05-08 03:52 55.84552 -102.06800 31895 ft 471 kts 229°
2026-05-08 03:52 55.79829 -102.14876 31892 ft 471 kts 229°
2026-05-08 03:53 55.75105 -102.22924 31890 ft 470 kts 229°
2026-05-08 03:53 55.70376 -102.30951 31889 ft 470 kts 228°
2026-05-08 03:54 55.65646 -102.38953 31892 ft 470 kts 228°
2026-05-08 03:54 55.60909 -102.46938 31895 ft 470 kts 228°
2026-05-08 03:55 55.56208 -102.54835 31897 ft 469 kts 228°
2026-05-08 03:55 55.51471 -102.62765 31899 ft 469 kts 228°
2026-05-08 03:56 55.46725 -102.70683 31898 ft 470 kts 228°
2026-05-08 03:56 55.41971 -102.78586 31886 ft 469 kts 227°
2026-05-08 03:57 55.37220 -102.86456 31895 ft 469 kts 227°
2026-05-08 03:57 55.32460 -102.94314 31888 ft 469 kts 227°
2026-05-08 03:58 55.27694 -103.02155 31890 ft 469 kts 227°
2026-05-08 03:58 55.22925 -103.09975 31887 ft 469 kts 227°
2026-05-08 03:59 55.18159 -103.17762 31887 ft 469 kts 227°
2026-05-08 03:59 55.13383 -103.25538 31884 ft 469 kts 227°
2026-05-08 04:00 55.08602 -103.33297 31888 ft 469 kts 227°
2026-05-08 04:00 55.03850 -103.40982 31885 ft 469 kts 227°
2026-05-08 04:01 54.99063 -103.48699 31882 ft 469 kts 227°
2026-05-08 04:01 54.94269 -103.56399 31871 ft 468 kts 226°
2026-05-08 04:02 54.89476 -103.64073 31878 ft 469 kts 227°
2026-05-08 04:02 54.84675 -103.71735 31883 ft 469 kts 226°
2026-05-08 04:03 54.80680 -103.78094 31880 ft 469 kts 226°
2026-05-08 04:03 54.72602 -103.90647 31873 ft 470 kts 225°
2026-05-08 04:04 54.68456 -103.96828 31878 ft 470 kts 225°
2026-05-08 04:04 54.63500 -104.04199 31876 ft 470 kts 225°
2026-05-08 04:05 54.58549 -104.11576 31884 ft 470 kts 225°
2026-05-08 04:05 54.53623 -104.18909 31887 ft 471 kts 225°
2026-05-08 04:06 54.48657 -104.26282 31887 ft 471 kts 225°
2026-05-08 04:06 54.43682 -104.33643 31878 ft 472 kts 225°
2026-05-08 04:07 54.38699 -104.40989 31882 ft 472 kts 225°
2026-05-08 04:07 54.33710 -104.48319 31878 ft 472 kts 225°
2026-05-08 04:08 54.28721 -104.55625 31883 ft 472 kts 225°
2026-05-08 04:08 54.23723 -104.62921 31880 ft 472 kts 225°
2026-05-08 04:09 54.18717 -104.70203 31875 ft 472 kts 225°
2026-05-08 04:09 54.13750 -104.77406 31881 ft 472 kts 225°
2026-05-08 04:10 54.08732 -104.84659 31883 ft 473 kts 225°
2026-05-08 04:10 54.03708 -104.91897 31882 ft 473 kts 226°
2026-05-08 04:11 53.98677 -104.99121 31876 ft 473 kts 226°
2026-05-08 04:11 53.93637 -105.06333 31887 ft 474 kts 226°
2026-05-08 04:12 53.88593 -105.13528 31887 ft 474 kts 226°
2026-05-08 04:12 53.83543 -105.20709 31898 ft 474 kts 226°
2026-05-08 04:13 53.78479 -105.27885 31893 ft 474 kts 226°
2026-05-08 04:13 53.73450 -105.34990 31888 ft 474 kts 226°
2026-05-08 04:14 53.68380 -105.42127 31891 ft 474 kts 226°
2026-05-08 04:14 53.63307 -105.49248 31884 ft 474 kts 226°
2026-05-08 04:15 53.58234 -105.56345 31882 ft 474 kts 226°
2026-05-08 04:15 53.53148 -105.63437 31878 ft 474 kts 226°
2026-05-08 04:16 53.48070 -105.70495 31882 ft 474 kts 226°
2026-05-08 04:16 53.42984 -105.77542 31874 ft 474 kts 226°
2026-05-08 04:17 53.37890 -105.84577 31869 ft 474 kts 226°
2026-05-08 04:17 53.32819 -105.91559 31865 ft 475 kts 226°
2026-05-08 04:18 53.27711 -105.98569 31865 ft 475 kts 226°
2026-05-08 04:18 53.22597 -106.05563 31868 ft 475 kts 226°
2026-05-08 04:19 53.17483 -106.12536 31887 ft 475 kts 226°
2026-05-08 04:19 53.12368 -106.19489 31888 ft 475 kts 226°
2026-05-08 04:20 53.07245 -106.26429 31902 ft 474 kts 226°
2026-05-08 04:20 53.02125 -106.33346 31893 ft 474 kts 226°
2026-05-08 04:21 52.96999 -106.40248 31901 ft 474 kts 226°
2026-05-08 04:21 52.91868 -106.47135 31898 ft 474 kts 226°
2026-05-08 04:22 52.86733 -106.54003 31904 ft 474 kts 226°
2026-05-08 04:22 52.81627 -106.60814 31897 ft 474 kts 226°
2026-05-08 04:23 52.76486 -106.67651 31915 ft 474 kts 225°
2026-05-08 04:23 52.71335 -106.74477 31909 ft 474 kts 225°
2026-05-08 04:24 52.66188 -106.81278 31901 ft 474 kts 225°
2026-05-08 04:24 52.61040 -106.88059 31895 ft 473 kts 225°
2026-05-08 04:25 52.55903 -106.94802 31905 ft 472 kts 225°
2026-05-08 04:25 52.50770 -107.01522 31964 ft 471 kts 226°
2026-05-08 04:26 52.45668 -107.08181 31924 ft 471 kts 226°
2026-05-08 04:26 52.40540 -107.14852 31915 ft 470 kts 226°
2026-05-08 04:27 52.35423 -107.21489 31914 ft 469 kts 226°
2026-05-08 04:27 52.30306 -107.28108 31913 ft 469 kts 226°
2026-05-08 04:28 52.25184 -107.34713 31922 ft 469 kts 226°
2026-05-08 04:28 52.20048 -107.41318 31920 ft 471 kts 226°
2026-05-08 04:29 52.14894 -107.47923 31920 ft 472 kts 226°
2026-05-08 04:29 52.09722 -107.54531 31920 ft 473 kts 226°
2026-05-08 04:30 52.04536 -107.61136 31924 ft 474 kts 226°
2026-05-08 04:30 51.99341 -107.67732 31917 ft 474 kts 226°
2026-05-08 04:31 51.94139 -107.74318 31919 ft 474 kts 226°
2026-05-08 04:31 51.88937 -107.80883 31924 ft 474 kts 226°
2026-05-08 04:32 51.83771 -107.87384 31915 ft 473 kts 226°
2026-05-08 04:32 51.78572 -107.93906 31918 ft 472 kts 226°
2026-05-08 04:33 51.73381 -108.00399 31913 ft 472 kts 226°
2026-05-08 04:33 51.68193 -108.06871 31919 ft 471 kts 226°
2026-05-08 04:34 51.63000 -108.13329 31913 ft 472 kts 226°
2026-05-08 04:34 51.57794 -108.19785 31922 ft 472 kts 225°
2026-05-08 04:35 51.52619 -108.26181 31917 ft 473 kts 225°
2026-05-08 04:35 51.47399 -108.32616 31919 ft 473 kts 225°
2026-05-08 04:36 51.42175 -108.39035 31917 ft 473 kts 225°
2026-05-08 04:36 51.36942 -108.45446 31918 ft 473 kts 225°
2026-05-08 04:37 51.31706 -108.51841 31919 ft 473 kts 225°
2026-05-08 04:37 51.26481 -108.58206 31923 ft 473 kts 225°
2026-05-08 04:38 51.21242 -108.64569 31921 ft 473 kts 225°
2026-05-08 04:38 51.16003 -108.70913 31922 ft 473 kts 225°
2026-05-08 04:39 51.10767 -108.77234 31922 ft 472 kts 224°
2026-05-08 04:39 51.05560 -108.83503 31913 ft 472 kts 224°
2026-05-08 04:40 51.00313 -108.89800 31909 ft 472 kts 224°
2026-05-08 04:40 50.95062 -108.96086 31922 ft 473 kts 224°
2026-05-08 04:41 50.89807 -109.02358 31913 ft 473 kts 224°
2026-05-08 04:41 50.84549 -109.08615 31916 ft 473 kts 224°
2026-05-08 04:42 50.79283 -109.14863 31918 ft 473 kts 224°
2026-05-08 04:42 50.74012 -109.21099 31911 ft 473 kts 224°
2026-05-08 04:43 50.68740 -109.27317 31908 ft 473 kts 224°
2026-05-08 04:43 50.63462 -109.33526 31902 ft 473 kts 224°
2026-05-08 04:44 50.58222 -109.39673 31913 ft 473 kts 224°
2026-05-08 04:44 50.52934 -109.45859 31922 ft 473 kts 224°
2026-05-08 04:45 50.47648 -109.52024 31918 ft 473 kts 224°
2026-05-08 04:45 50.42352 -109.58183 31917 ft 474 kts 224°
2026-05-08 04:46 50.37043 -109.64341 31940 ft 475 kts 224°
2026-05-08 04:46 50.31726 -109.70489 31923 ft 476 kts 224°
2026-05-08 04:47 50.26393 -109.76640 31924 ft 476 kts 224°
2026-05-08 04:47 50.21053 -109.82780 31914 ft 477 kts 224°
2026-05-08 04:48 50.15706 -109.88911 31921 ft 477 kts 224°
2026-05-08 04:48 50.10376 -109.95007 31924 ft 478 kts 224°
2026-05-08 04:49 50.04997 -110.01135 31930 ft 479 kts 224°
2026-05-08 04:49 49.99556 -110.07168 31925 ft 481 kts 223°
2026-05-08 04:50 49.94078 -110.13162 31933 ft 482 kts 223°
2026-05-08 04:50 49.88594 -110.19160 31939 ft 483 kts 223°
2026-05-08 04:51 49.84028 -110.24154 31936 ft 484 kts 223°
2026-05-08 04:51 49.78512 -110.30178 31939 ft 485 kts 223°
2026-05-08 04:52 49.72992 -110.36190 31939 ft 486 kts 223°
2026-05-08 04:52 49.67453 -110.42205 31943 ft 487 kts 224°
2026-05-08 04:53 49.61896 -110.48224 31940 ft 489 kts 224°
2026-05-08 04:53 49.56314 -110.54251 31944 ft 490 kts 224°
2026-05-08 04:54 49.50756 -110.60233 31939 ft 491 kts 224°
2026-05-08 04:54 49.45143 -110.66258 31937 ft 492 kts 224°
2026-05-08 04:55 49.39521 -110.72277 31948 ft 493 kts 224°
2026-05-08 04:55 49.33883 -110.78296 31944 ft 495 kts 224°
2026-05-08 04:56 49.28226 -110.84317 31940 ft 495 kts 224°
2026-05-08 04:56 49.22559 -110.90330 31942 ft 496 kts 224°
2026-05-08 04:57 49.16881 -110.96339 31946 ft 497 kts 224°
2026-05-08 04:57 49.11192 -111.02343 31949 ft 497 kts 224°
2026-05-08 04:58 49.05489 -111.08344 31945 ft 498 kts 224°
2026-05-08 04:58 48.99782 -111.14333 31952 ft 498 kts 224°
2026-05-08 04:59 48.94075 -111.20303 31959 ft 498 kts 224°
2026-05-08 04:59 48.88364 -111.26262 31959 ft 497 kts 224°
2026-05-08 05:00 48.82690 -111.32165 31948 ft 497 kts 225°
2026-05-08 05:00 48.76995 -111.38073 31959 ft 496 kts 224°
2026-05-08 05:01 48.71296 -111.43969 31965 ft 495 kts 224°
2026-05-08 05:01 48.65610 -111.49837 31982 ft 494 kts 224°
2026-05-08 05:02 48.59929 -111.55683 31993 ft 494 kts 224°
2026-05-08 05:02 48.54248 -111.61513 32010 ft 493 kts 224°
2026-05-08 05:03 48.48568 -111.67326 32008 ft 493 kts 224°
2026-05-08 05:03 48.42887 -111.73123 32009 ft 492 kts 224°
2026-05-08 05:04 48.37248 -111.78863 32001 ft 492 kts 224°
2026-05-08 05:04 48.31578 -111.84616 31989 ft 491 kts 224°
2026-05-08 05:05 48.25915 -111.90347 31977 ft 490 kts 223°
2026-05-08 05:05 48.20264 -111.96051 31966 ft 489 kts 223°
2026-05-08 05:06 48.14622 -112.01732 31966 ft 488 kts 223°
2026-05-08 05:06 48.08978 -112.07399 31968 ft 488 kts 223°
2026-05-08 05:07 48.03338 -112.13047 31967 ft 488 kts 223°
2026-05-08 05:07 47.97694 -112.18684 31990 ft 487 kts 223°
2026-05-08 05:08 47.92097 -112.24258 31986 ft 487 kts 223°
2026-05-08 05:08 47.86448 -112.29869 31978 ft 487 kts 223°
2026-05-08 05:09 47.80808 -112.35457 31991 ft 487 kts 223°
2026-05-08 05:09 47.75163 -112.41035 31992 ft 487 kts 223°
2026-05-08 05:10 47.66710 -112.49358 31996 ft 486 kts 223°
2026-05-08 05:11 47.61072 -112.54893 32002 ft 485 kts 223°
2026-05-08 05:11 47.55435 -112.60411 31994 ft 485 kts 223°
2026-05-08 05:12 47.49836 -112.65877 31994 ft 484 kts 223°
2026-05-08 05:12 47.44222 -112.71347 32015 ft 483 kts 223°
2026-05-08 05:13 47.38609 -112.76799 32014 ft 483 kts 222°
2026-05-08 05:13 47.32976 -112.82257 31976 ft 484 kts 222°
2026-05-08 05:14 47.27346 -112.87701 32002 ft 485 kts 222°
2026-05-08 05:14 47.21707 -112.93134 31994 ft 484 kts 222°
2026-05-08 05:15 47.16066 -112.98556 31984 ft 484 kts 222°
2026-05-08 05:15 47.10436 -113.03954 31982 ft 483 kts 221°
2026-05-08 05:16 47.04843 -113.09301 31973 ft 482 kts 221°
2026-05-08 05:16 46.99232 -113.14653 31977 ft 480 kts 221°
2026-05-08 05:17 46.93630 -113.19986 31979 ft 480 kts 221°
2026-05-08 05:17 46.88025 -113.25302 31976 ft 479 kts 221°
2026-05-08 05:18 46.82434 -113.30602 31967 ft 479 kts 221°
2026-05-08 05:18 46.76844 -113.35881 31949 ft 478 kts 221°
2026-05-08 05:19 46.71268 -113.41130 31970 ft 477 kts 221°
2026-05-08 05:19 46.65687 -113.46378 31974 ft 478 kts 221°
2026-05-08 05:20 46.60082 -113.51637 31969 ft 479 kts 221°
2026-05-08 05:20 46.54487 -113.56861 31982 ft 478 kts 221°
2026-05-08 05:21 46.48891 -113.62085 31972 ft 478 kts 220°
2026-05-08 05:21 46.43287 -113.67299 31988 ft 478 kts 220°
2026-05-08 05:22 46.37718 -113.72467 31966 ft 478 kts 220°
2026-05-08 05:22 46.32126 -113.77638 31966 ft 477 kts 220°
2026-05-08 05:23 46.26542 -113.82799 31952 ft 476 kts 220°
2026-05-08 05:23 46.20977 -113.87923 31980 ft 474 kts 220°
2026-05-08 05:24 46.15429 -113.93022 31975 ft 472 kts 220°
2026-05-08 05:24 46.09881 -113.98112 31972 ft 473 kts 220°
2026-05-08 05:25 46.04326 -114.03193 31959 ft 472 kts 220°
2026-05-08 05:25 45.98780 -114.08249 31962 ft 471 kts 220°
2026-05-08 05:26 45.93238 -114.13299 31971 ft 472 kts 219°
2026-05-08 05:26 45.87716 -114.18315 31971 ft 474 kts 219°
2026-05-08 05:27 45.82130 -114.23376 31966 ft 475 kts 219°
2026-05-08 05:27 45.76547 -114.28420 31955 ft 474 kts 219°
2026-05-08 05:28 45.70984 -114.33425 31969 ft 471 kts 219°
2026-05-08 05:28 45.65428 -114.38423 31958 ft 471 kts 219°
2026-05-08 05:29 45.59878 -114.43407 31966 ft 469 kts 219°
2026-05-08 05:29 45.54349 -114.48358 31978 ft 470 kts 219°
2026-05-08 05:30 45.48804 -114.53310 31971 ft 470 kts 219°
2026-05-08 05:30 45.43292 -114.58223 31961 ft 470 kts 218°
2026-05-08 05:31 45.37745 -114.63151 31950 ft 469 kts 218°
2026-05-08 05:31 45.32213 -114.68052 31929 ft 468 kts 218°
2026-05-08 05:32 45.26684 -114.72950 31918 ft 468 kts 218°
2026-05-08 05:32 45.21156 -114.77825 31953 ft 468 kts 218°
2026-05-08 05:33 45.15623 -114.82698 31941 ft 468 kts 218°
2026-05-08 05:33 45.10139 -114.87519 31939 ft 467 kts 218°
2026-05-08 05:34 45.04609 -114.92367 31962 ft 468 kts 218°
2026-05-08 05:34 44.99069 -114.97213 31959 ft 468 kts 218°
2026-05-08 05:35 44.93521 -115.02052 31964 ft 469 kts 218°
2026-05-08 05:35 44.87974 -115.06880 31957 ft 468 kts 217°
2026-05-08 05:36 44.82438 -115.11685 31960 ft 466 kts 217°
2026-05-08 05:36 44.76928 -115.16460 31990 ft 465 kts 217°
2026-05-08 05:37 44.71415 -115.21228 31989 ft 464 kts 217°
2026-05-08 05:37 44.65911 -115.25979 31999 ft 465 kts 217°
2026-05-08 05:38 44.60393 -115.30729 31997 ft 464 kts 217°
2026-05-08 05:38 44.54884 -115.35456 31985 ft 464 kts 217°
2026-05-08 05:39 44.49381 -115.40171 31996 ft 463 kts 217°
2026-05-08 05:39 44.43918 -115.44844 31996 ft 463 kts 217°
2026-05-08 05:40 44.38415 -115.49537 31997 ft 463 kts 217°
2026-05-08 05:40 44.32908 -115.54225 31992 ft 463 kts 217°
2026-05-08 05:41 44.27394 -115.58908 31985 ft 464 kts 217°
2026-05-08 05:41 44.21878 -115.63582 31995 ft 464 kts 217°
2026-05-08 05:42 44.17287 -115.67463 31989 ft 464 kts 217°
2026-05-08 05:42 44.11765 -115.72119 32005 ft 463 kts 217°
2026-05-08 05:43 44.06243 -115.76775 31982 ft 465 kts 217°
2026-05-08 05:43 44.00706 -115.81429 31983 ft 465 kts 217°
2026-05-08 05:44 43.95166 -115.86071 31986 ft 465 kts 217°
2026-05-08 05:44 43.89630 -115.90700 31983 ft 464 kts 216°
2026-05-08 05:45 43.84097 -115.95318 31977 ft 463 kts 216°
2026-05-08 05:45 43.78580 -115.99912 31972 ft 462 kts 216°
2026-05-08 05:46 43.73076 -116.04488 31990 ft 461 kts 216°
2026-05-08 05:46 43.67607 -116.09027 31996 ft 462 kts 216°
2026-05-08 05:47 43.62083 -116.13600 32008 ft 463 kts 216°
2026-05-08 05:47 43.56635 -116.18339 32003 ft 460 kts 222°
2026-05-08 05:48 43.51917 -116.24204 32007 ft 453 kts 233°
2026-05-08 05:48 43.47722 -116.30673 32004 ft 453 kts 233°
2026-05-08 05:49 43.43531 -116.37148 31995 ft 453 kts 233°
2026-05-08 05:49 43.39323 -116.43591 31989 ft 453 kts 232°
2026-05-08 05:50 43.35106 -116.50007 31984 ft 452 kts 232°
2026-05-08 05:50 43.30912 -116.56366 31980 ft 452 kts 232°
2026-05-08 05:51 43.26691 -116.62750 31975 ft 451 kts 232°
2026-05-08 05:51 43.22474 -116.69116 31978 ft 450 kts 232°
2026-05-08 05:52 43.18254 -116.75474 31981 ft 451 kts 232°
2026-05-08 05:52 43.14036 -116.81814 31989 ft 450 kts 232°
2026-05-08 05:53 43.09815 -116.88146 31992 ft 450 kts 232°
2026-05-08 05:53 43.05595 -116.94462 31994 ft 450 kts 232°
2026-05-08 05:54 43.01369 -117.00773 31996 ft 449 kts 231°
2026-05-08 05:54 42.97143 -117.07069 31994 ft 449 kts 231°
2026-05-08 05:55 42.92918 -117.13349 31998 ft 449 kts 231°
2026-05-08 05:55 42.88692 -117.19618 31995 ft 449 kts 231°
2026-05-08 05:56 42.84465 -117.25876 32007 ft 449 kts 231°
2026-05-08 05:56 42.80230 -117.32131 31996 ft 449 kts 231°
2026-05-08 05:57 42.76020 -117.38336 32005 ft 449 kts 231°
2026-05-08 05:57 42.71779 -117.44573 32003 ft 449 kts 231°
2026-05-08 05:58 42.67529 -117.50811 32018 ft 449 kts 231°
2026-05-08 05:58 42.63275 -117.57039 32029 ft 450 kts 231°
2026-05-08 05:59 42.59016 -117.63263 32045 ft 450 kts 231°
2026-05-08 05:59 42.54743 -117.69492 32047 ft 451 kts 231°
2026-05-08 06:00 42.50470 -117.75708 32063 ft 451 kts 231°
2026-05-08 06:00 42.46189 -117.81924 32061 ft 451 kts 231°
2026-05-08 06:01 42.41905 -117.88128 32052 ft 451 kts 231°
2026-05-08 06:01 42.37614 -117.94331 32041 ft 451 kts 231°
2026-05-08 06:02 42.33348 -118.00484 32028 ft 451 kts 231°
2026-05-08 06:02 42.29050 -118.06670 32019 ft 452 kts 231°
2026-05-08 06:03 42.24742 -118.12859 32004 ft 452 kts 230°
2026-05-08 06:03 42.20437 -118.19028 32002 ft 452 kts 230°
2026-05-08 06:04 42.16125 -118.25194 32001 ft 452 kts 230°
2026-05-08 06:04 42.11809 -118.31355 32000 ft 452 kts 230°
2026-05-08 06:05 42.07492 -118.37501 32007 ft 451 kts 230°
2026-05-08 06:05 42.03180 -118.43629 32005 ft 451 kts 230°
2026-05-08 06:06 41.98862 -118.49752 32009 ft 451 kts 230°
2026-05-08 06:06 41.94566 -118.55831 32011 ft 451 kts 230°
2026-05-08 06:07 41.90240 -118.61940 32013 ft 452 kts 230°
2026-05-08 06:07 41.86205 -118.67626 32015 ft 452 kts 230°
2026-05-08 06:08 41.81990 -118.73555 32022 ft 452 kts 229°
2026-05-08 06:08 41.77678 -118.79607 32022 ft 452 kts 229°
2026-05-08 06:09 41.73324 -118.85706 32033 ft 452 kts 229°
2026-05-08 06:09 41.68965 -118.91798 32032 ft 453 kts 229°
2026-05-08 06:10 41.64600 -118.97886 32046 ft 453 kts 229°
2026-05-08 06:10 41.60239 -119.03955 32049 ft 453 kts 229°
2026-05-08 06:11 41.55871 -119.10022 32044 ft 453 kts 229°
2026-05-08 06:11 41.51500 -119.16080 32051 ft 453 kts 229°
2026-05-08 06:12 41.47125 -119.22133 32044 ft 453 kts 229°
2026-05-08 06:12 41.42745 -119.28176 32047 ft 453 kts 229°
2026-05-08 06:13 41.38369 -119.34205 32047 ft 453 kts 228°
2026-05-08 06:13 41.34021 -119.40182 32042 ft 452 kts 228°
2026-05-08 06:14 41.29635 -119.46199 32040 ft 452 kts 228°
2026-05-08 06:14 41.25255 -119.52195 32040 ft 452 kts 228°
2026-05-08 06:15 41.20877 -119.58176 32040 ft 452 kts 228°
2026-05-08 06:15 41.16490 -119.64156 32040 ft 452 kts 228°
2026-05-08 06:16 41.12044 -119.70211 32125 ft 468 kts 227°
2026-05-08 06:16 41.09745 -119.73337 32144 ft 480 kts 227°
2026-05-08 06:16 41.07386 -119.76541 32165 ft 490 kts 227°
2026-05-08 06:17 41.00058 -119.86462 32157 ft 509 kts 227°
2026-05-08 06:17 40.95123 -119.93119 32144 ft 510 kts 227°
2026-05-08 06:18 40.90148 -119.99818 32158 ft 510 kts 227°
2026-05-08 06:18 40.85177 -120.06498 32168 ft 509 kts 227°
2026-05-08 06:19 40.80204 -120.13167 32168 ft 509 kts 226°
2026-05-08 06:19 40.75239 -120.19809 32173 ft 508 kts 226°
2026-05-08 06:20 40.70274 -120.26437 32180 ft 507 kts 226°
2026-05-08 06:20 40.65319 -120.33037 32178 ft 507 kts 226°
2026-05-08 06:21 40.60380 -120.39600 32213 ft 506 kts 226°
2026-05-08 06:21 40.55413 -120.46186 32235 ft 506 kts 226°
2026-05-08 06:22 40.50452 -120.52749 32261 ft 506 kts 226°
2026-05-08 06:22 40.45489 -120.59300 32277 ft 506 kts 226°
2026-05-08 06:23 40.40521 -120.65844 32271 ft 505 kts 226°
2026-05-08 06:23 40.35557 -120.72367 32267 ft 505 kts 225°
2026-05-08 06:24 40.30614 -120.78849 32262 ft 505 kts 225°
2026-05-08 06:24 40.25642 -120.85356 32239 ft 505 kts 225°
2026-05-08 06:25 40.20666 -120.91851 32230 ft 505 kts 225°
2026-05-08 06:25 40.15685 -120.98340 32224 ft 505 kts 225°
2026-05-08 06:26 40.10705 -121.04813 32231 ft 505 kts 225°
2026-05-08 06:26 40.05722 -121.11276 32229 ft 505 kts 226°
2026-05-08 06:27 40.00741 -121.17722 32250 ft 504 kts 225°
2026-05-08 06:27 39.95751 -121.24166 32222 ft 504 kts 226°
2026-05-08 06:28 39.91605 -121.29510 32223 ft 504 kts 226°
2026-05-08 06:28 39.86616 -121.35926 32233 ft 504 kts 226°
2026-05-08 06:29 39.81623 -121.42334 32209 ft 504 kts 226°
2026-05-08 06:29 39.76630 -121.48730 32196 ft 504 kts 226°
2026-05-08 06:30 39.71627 -121.55123 32175 ft 504 kts 226°
2026-05-08 06:30 39.66621 -121.61507 32165 ft 504 kts 225°
2026-05-08 06:31 39.61610 -121.67883 32161 ft 504 kts 225°
2026-05-08 06:31 39.56595 -121.74250 32158 ft 505 kts 225°
2026-05-08 06:32 39.51573 -121.80614 32151 ft 505 kts 225°
2026-05-08 06:32 39.46575 -121.86932 32146 ft 505 kts 225°
2026-05-08 06:33 39.41543 -121.93281 32140 ft 506 kts 225°
2026-05-08 06:33 39.36503 -121.99627 32134 ft 506 kts 225°
2026-05-08 06:34 39.31452 -122.05971 32119 ft 505 kts 225°
2026-05-08 06:34 39.28942 -122.09119 31690 ft 500 kts 225°
2026-05-08 06:34 39.26460 -122.12229 30939 ft 495 kts 225°
2026-05-08 06:35 39.24005 -122.15303 30264 ft 489 kts 225°
2026-05-08 06:35 39.21556 -122.18365 30081 ft 495 kts 225°
2026-05-08 06:35 39.19055 -122.21489 29944 ft 502 kts 225°
2026-05-08 06:35 39.16540 -122.24628 29950 ft 505 kts 225°
2026-05-08 06:36 39.11484 -122.30927 29937 ft 504 kts 225°
2026-05-08 06:36 39.06473 -122.37158 29955 ft 504 kts 225°
2026-05-08 06:37 39.01425 -122.43422 29963 ft 504 kts 225°
2026-05-08 06:37 38.96378 -122.49673 29970 ft 504 kts 225°
2026-05-08 06:38 38.91031 -122.55448 29968 ft 504 kts 211°
2026-05-08 06:38 38.87839 -122.57330 29987 ft 506 kts 200°
2026-05-08 06:38 38.84426 -122.58497 29984 ft 509 kts 190°
2026-05-08 06:39 38.77361 -122.59177 30000 ft 510 kts 184°
2026-05-08 06:39 38.70321 -122.59711 29640 ft 506 kts 185°
2026-05-08 06:40 38.66831 -122.60007 28797 ft 500 kts 185°
2026-05-08 06:40 38.63384 -122.60322 28095 ft 492 kts 185°
2026-05-08 06:40 38.60004 -122.60643 27544 ft 482 kts 185°
2026-05-08 06:40 38.56691 -122.60963 26980 ft 474 kts 185°
2026-05-08 06:41 38.53421 -122.61281 26325 ft 468 kts 186°
2026-05-08 06:41 38.50185 -122.61595 25630 ft 465 kts 186°
2026-05-08 06:41 38.46968 -122.61905 24943 ft 462 kts 186°
2026-05-08 06:41 38.43765 -122.62213 24294 ft 459 kts 186°
2026-05-08 06:42 38.40597 -122.62516 23675 ft 455 kts 186°
2026-05-08 06:42 38.37451 -122.62816 22969 ft 451 kts 186°
2026-05-08 06:42 38.34335 -122.63113 22313 ft 446 kts 186°
2026-05-08 06:42 38.31255 -122.63407 21686 ft 442 kts 186°
2026-05-08 06:43 38.28202 -122.63697 21076 ft 437 kts 186°
2026-05-08 06:43 38.25218 -122.63980 20465 ft 434 kts 185°
2026-05-08 06:43 38.22224 -122.64265 19865 ft 430 kts 185°
2026-05-08 06:43 38.19249 -122.64547 19270 ft 427 kts 185°
2026-05-08 06:44 38.16299 -122.64827 18699 ft 423 kts 185°
2026-05-08 06:44 38.13376 -122.65104 18103 ft 420 kts 185°
2026-05-08 06:44 38.10475 -122.65379 17490 ft 416 kts 185°
2026-05-08 06:44 38.07599 -122.65651 16910 ft 411 kts 186°
2026-05-08 06:45 38.04761 -122.65919 16400 ft 406 kts 186°
2026-05-08 06:45 38.01926 -122.66188 16222 ft 410 kts 186°
2026-05-08 06:45 37.99092 -122.66456 16124 ft 406 kts 186°
2026-05-08 06:45 37.96291 -122.66720 16124 ft 402 kts 186°
2026-05-08 06:46 37.93500 -122.66982 16124 ft 400 kts 185°
2026-05-08 06:46 37.90717 -122.66773 16118 ft 409 kts 168°
2026-05-08 06:46 37.89823 -122.66448 16131 ft 412 kts 162°
2026-05-08 06:46 37.87705 -122.65113 16110 ft 418 kts 146°
2026-05-08 06:47 37.85501 -122.62763 16135 ft 415 kts 140°
2026-05-08 06:47 37.83328 -122.60345 16141 ft 416 kts 140°
2026-05-08 06:47 37.81119 -122.57961 16144 ft 418 kts 141°
2026-05-08 06:47 37.78920 -122.55629 16147 ft 418 kts 141°
2026-05-08 06:48 37.76687 -122.53272 16147 ft 418 kts 141°
2026-05-08 06:48 37.74453 -122.50915 16149 ft 418 kts 141°
2026-05-08 06:48 37.72222 -122.48556 16154 ft 417 kts 141°
2026-05-08 06:48 37.70006 -122.46199 16154 ft 416 kts 141°
2026-05-08 06:49 37.67796 -122.43844 16158 ft 416 kts 141°
2026-05-08 06:49 37.65592 -122.41497 16108 ft 410 kts 141°
2026-05-08 06:49 37.63443 -122.39213 15534 ft 399 kts 141°
2026-05-08 06:49 37.61339 -122.36988 14774 ft 389 kts 142°
2026-05-08 06:50 37.59096 -122.35154 13846 ft 383 kts 153°
2026-05-08 06:50 37.56733 -122.33636 12742 ft 380 kts 155°
2026-05-08 06:50 37.54336 -122.32245 11658 ft 379 kts 158°
2026-05-08 06:50 37.51924 -122.30924 10765 ft 374 kts 158°
2026-05-08 06:51 37.49598 -122.29651 10429 ft 353 kts 158°
2026-05-08 06:51 37.47427 -122.28425 10230 ft 331 kts 157°
2026-05-08 06:51 37.45398 -122.27259 10113 ft 309 kts 157°
2026-05-08 06:51 37.43509 -122.26189 10094 ft 287 kts 158°
2026-05-08 06:52 37.41706 -122.25181 10100 ft 281 kts 158°
2026-05-08 06:52 37.39921 -122.24198 9897 ft 279 kts 159°
2026-05-08 06:52 37.38150 -122.23223 9443 ft 277 kts 158°
2026-05-08 06:52 37.36400 -122.22213 8879 ft 276 kts 157°
2026-05-08 06:53 37.34665 -122.21178 8286 ft 276 kts 156°
2026-05-08 06:53 37.32928 -122.20164 7734 ft 275 kts 156°
2026-05-08 06:53 37.31227 -122.19082 7241 ft 274 kts 147°
2026-05-08 06:53 37.29941 -122.17372 6749 ft 275 kts 120°
2026-05-08 06:54 37.29430 -122.15085 6329 ft 271 kts 90°
2026-05-08 06:54 37.29845 -122.12844 6152 ft 265 kts 60°
2026-05-08 06:54 37.31072 -122.11123 6119 ft 269 kts 33°
2026-05-08 06:54 37.32681 -122.09903 6116 ft 272 kts 27°
2026-05-08 06:55 37.34357 -122.08788 6099 ft 273 kts 26°
2026-05-08 06:55 37.36032 -122.07695 5880 ft 271 kts 26°
2026-05-08 06:55 37.37699 -122.06611 5456 ft 268 kts 26°
2026-05-08 06:55 37.39356 -122.05536 4916 ft 267 kts 26°
2026-05-08 06:56 37.40995 -122.04473 4444 ft 263 kts 24°
2026-05-08 06:56 37.42709 -122.03758 3934 ft 257 kts
2026-05-08 06:56 37.44466 -122.03822 3433 ft 250 kts 341°
2026-05-08 06:56 37.45942 -122.04846 3238 ft 242 kts 318°
2026-05-08 06:57 37.47160 -122.06277 3119 ft 240 kts 314°
2026-05-08 06:57 37.48258 -122.07741 3092 ft 218 kts 308°
2026-05-08 06:57 37.49139 -122.09211 3078 ft 202 kts 303°
2026-05-08 06:57 37.49858 -122.10638 3076 ft 187 kts 300°
2026-05-08 06:58 37.50526 -122.12040 3116 ft 185 kts 300°
2026-05-08 06:58 37.51175 -122.13422 3171 ft 182 kts 300°
2026-05-08 06:58 37.51814 -122.14791 3114 ft 177 kts 300°
2026-05-08 06:58 37.52415 -122.16087 3099 ft 165 kts 300°
2026-05-08 06:59 37.52985 -122.17313 3099 ft 159 kts 300°
2026-05-08 06:59 37.53542 -122.18508 3112 ft 158 kts 300°
2026-05-08 06:59 37.54103 -122.19705 3113 ft 158 kts 300°
2026-05-08 06:59 37.54640 -122.20848 3100 ft 149 kts 300°
2026-05-08 07:00 37.55158 -122.21956 3097 ft 144 kts 300°
2026-05-08 07:00 37.55662 -122.23047 3060 ft 146 kts 300°
2026-05-08 07:00 37.56177 -122.24183 2906 ft 152 kts 298°
2026-05-08 07:00 37.56663 -122.25365 2766 ft 150 kts 297°
2026-05-08 07:01 37.57147 -122.26483 2584 ft 146 kts 299°
2026-05-08 07:01 37.57653 -122.27607 2226 ft 147 kts 298°
2026-05-08 07:01 37.58156 -122.28729 1856 ft 147 kts 298°
2026-05-08 07:01 37.58649 -122.29850 1456 ft 146 kts 298°
2026-05-08 07:02 37.59136 -122.30964 1051 ft 137 kts 298°
2026-05-08 07:02 37.59576 -122.31927 992 ft 128 kts 297°
2026-05-08 07:02 37.60032 -122.32917 1034 ft 135 kts 300°
2026-05-08 07:02 37.60552 -122.33932 839 ft 138 kts 301°
2026-05-08 07:03 37.61056 -122.34946 423 ft 135 kts 297°
2026-05-08 07:03 37.61458 -122.35959 54 ft 120 kts 295°
2026-05-08 07:03 37.61806 -122.36814 27 ft 97 kts 300°
2026-05-08 07:03 37.62037 -122.37350 23 ft 58 kts 296°
2026-05-08 07:04 37.62180 -122.37724 29 ft 39 kts 293°
2026-05-08 07:04 37.62217 -122.38027 29 ft 32 kts 280°
2026-05-08 07:04 37.62226 -122.38251 28 ft 24 kts 267°
2026-05-08 07:04 37.62223 -122.38430 24 ft 17 kts 266°
2026-05-08 07:05 37.62213 -122.38561 25 ft 13 kts 259°
2026-05-08 07:05 37.62170 -122.38633 24 ft 3 kts 186°
2026-05-08 07:05 37.62149 -122.38619 26 ft 4 kts 144°
2026-05-08 07:05 37.62132 -122.38596 23 ft 4 kts 130°
2026-05-08 07:06 37.62104 -122.38549 22 ft 12 kts 132°
2026-05-08 07:06 37.62037 -122.38523 23 ft 10 kts 190°
2026-05-08 07:06 37.61965 -122.38563 25 ft 6 kts 211°
2026-05-08 07:06 37.61943 -122.38572 24 ft 3 kts 191°
2026-05-08 07:07 37.61920 -122.38575 23 ft 3 kts 185°
2026-05-08 07:07 37.61910 -122.38576 24 ft 0 kts 185°